Time,TemperatureF,DewpointF,PressureIn,WindDirection,WindDirectionDegrees,WindSpeedMPH,WindSpeedGustMPH,Humidity,HourlyPrecipIn,Conditions,Clouds,dailyrainin,SoftwareType,DateUTC
2013-02-05 00:00:00,23.4,-99.9,-100.00,SSW,193,0.0,0.0,-999,0.00,,---,0.00,VWS V14.01,2013-02-05 05:00:00,
2013-02-05 00:01:00,24.4,-99.9,-100.00,SW,221,0.0,0.0,-999,0.00,,---,0.00,VWS V14.01,2013-02-05 05:01:00,
2013-02-05 00:02:00,24.2,-99.9,-100.00,SW,221,0.0,0.0,-999,0.00,,---,0.00,VWS V14.01,2013-02-05 05:02:00,
2013-02-05 00:03:00,24.4,-99.9,-100.00,SW,221,0.0,0.0,-999,0.00,,---,0.00,VWS V14.01,2013-02-05 05:03:00,
2013-02-05 00:04:00,24.4,-99.9,-100.00,SW,221,0.0,0.0,-999,0.00,,---,0.00,VWS V14.01,2013-02-05 05:04:00,
2013-02-05 00:05:00,22.6,-99.9,-100.00,SSW,193,0.0,0.0,-999,0.00,,---,0.00,VWS V14.01,2013-02-05 05:05:00,
2013-02-05 00:06:00,24.7,-99.9,-100.00,SW,221,0.0,0.0,-999,0.00,,---,0.00,VWS V14.01,2013-02-05 05:06:00,
2013-02-05 00:07:00,24.2,-99.9,-100.00,SW,221,0.0,0.0,-999,0.00,,---,0.00,VWS V14.01,2013-02-05 05:07:00,
2013-02-05 00:08:00,24.2,-99.9,-100.00,SW,221,0.0,0.0,-999,0.00,,---,0.00,VWS V14.01,2013-02-05 05:08:00,
2013-02-05 00:09:00,24.7,-99.9,-100.00,SW,221,0.0,0.0,-999,0.00,,---,0.00,VWS V14.01,2013-02-05 05:09:00,
2013-02-05 00:10:00,22.6,-99.9,-100.00,SSW,193,0.0,0.0,-999,0.00,,---,0.00,VWS V14.01,2013-02-05 05:10:00,
2013-02-05 00:11:00,24.2,-99.9,-100.00,SW,221,0.0,0.0,-999,0.00,,---,0.00,VWS V14.01,2013-02-05 05:11:00,
2013-02-05 00:12:00,24.2,-99.9,-100.00,SW,221,0.0,0.0,-999,0.00,,---,0.00,VWS V14.01,2013-02-05 05:12:00,
2013-02-05 00:13:00,23.9,-99.9,-100.00,SW,221,0.0,0.0,-999,0.00,,---,0.00,VWS V14.01,2013-02-05 05:13:00,
2013-02-05 00:14:00,23.9,-99.9,-100.00,SW,221,0.0,0.0,-999,0.00,,---,0.00,VWS V14.01,2013-02-05 05:14:00,
2013-02-05 00:15:00,22.6,-99.9,-100.00,SSW,193,0.0,0.0,-999,0.00,,---,0.00,VWS V14.01,2013-02-05 05:15:00,
2013-02-05 00:16:00,23.9,-99.9,-100.00,SW,217,3.5,3.5,-999,0.00,,---,0.00,VWS V14.01,2013-02-05 05:16:00,
2013-02-05 00:17:00,24.7,-99.9,-100.00,SSW,201,0.0,3.5,-999,0.00,,---,0.00,VWS V14.01,2013-02-05 05:17:00,
2013-02-05 00:18:00,24.4,-99.9,-100.00,SSW,201,0.0,3.5,-999,0.00,,---,0.00,VWS V14.01,2013-02-05 05:18:00,
2013-02-05 00:19:00,24.2,-99.9,-100.00,SSW,201,0.0,3.5,-999,0.00,,---,0.00,VWS V14.01,2013-02-05 05:19:00,
2013-02-05 00:20:00,22.6,-99.9,-100.00,SSW,193,0.0,0.0,-999,0.00,,---,0.00,VWS V14.01,2013-02-05 05:20:00,
2013-02-05 00:21:00,24.2,-99.9,-100.00,SSW,201,0.0,3.5,-999,0.00,,---,0.00,VWS V14.01,2013-02-05 05:21:00,
2013-02-05 00:22:00,24.2,-99.9,-100.00,SSW,201,0.0,3.5,-999,0.00,,---,0.00,VWS V14.01,2013-02-05 05:22:00,
2013-02-05 00:23:00,24.2,-99.9,-100.00,SSW,201,0.0,3.5,-999,0.00,,---,0.00,VWS V14.01,2013-02-05 05:23:00,
2013-02-05 00:24:00,24.7,-99.9,-100.00,SSW,201,0.0,3.5,-999,0.00,,---,0.00,VWS V14.01,2013-02-05 05:24:00,
2013-02-05 00:25:00,22.6,-99.9,-100.00,SSW,193,0.0,0.0,-999,0.00,,---,0.00,VWS V14.01,2013-02-05 05:25:00,
2013-02-05 00:26:00,22.9,-99.9,-100.00,SSW,193,0.0,0.0,-999,0.00,,---,0.00,VWS V14.01,2013-02-05 05:26:00,
2013-02-05 00:27:00,24.2,-99.9,-100.00,SSW,201,0.0,3.5,-999,0.00,,---,0.00,VWS V14.01,2013-02-05 05:27:00,
2013-02-05 00:28:00,23.9,-99.9,-100.00,SSW,201,0.0,3.5,-999,0.00,,---,0.00,VWS V14.01,2013-02-05 05:28:00,
2013-02-05 00:29:00,24.4,-99.9,-100.00,SSW,201,0.0,3.5,-999,0.00,,---,0.00,VWS V14.01,2013-02-05 05:29:00,
2013-02-05 00:30:00,22.6,-99.9,-100.00,SSW,193,0.0,0.0,-999,0.00,,---,0.00,VWS V14.01,2013-02-05 05:30:00,
2013-02-05 00:31:00,22.3,-99.9,-100.00,SSW,193,0.0,0.0,-999,0.00,,---,0.00,VWS V14.01,2013-02-05 05:31:00,
2013-02-05 00:32:00,23.9,-99.9,-100.00,SSW,201,0.0,3.5,-999,0.00,,---,0.00,VWS V14.01,2013-02-05 05:32:00,
2013-02-05 00:33:00,23.9,-99.9,-100.00,SSW,201,0.0,3.5,-999,0.00,,---,0.00,VWS V14.01,2013-02-05 05:33:00,
2013-02-05 00:34:00,24.4,-99.9,-100.00,SSW,201,0.0,3.5,-999,0.00,,---,0.00,VWS V14.01,2013-02-05 05:34:00,
2013-02-05 00:35:00,23.1,-99.9,-100.00,SSW,193,0.0,0.0,-999,0.00,,---,0.00,VWS V14.01,2013-02-05 05:35:00,
2013-02-05 00:36:00,23.1,-99.9,-100.00,SSW,193,0.0,0.0,-999,0.00,,---,0.00,VWS V14.01,2013-02-05 05:36:00,
2013-02-05 00:37:00,24.4,-99.9,-100.00,SSW,201,0.0,3.5,-999,0.00,,---,0.00,VWS V14.01,2013-02-05 05:37:00,
2013-02-05 00:38:00,24.2,-99.9,-100.00,SSW,201,0.0,3.5,-999,0.00,,---,0.00,VWS V14.01,2013-02-05 05:38:00,
2013-02-05 00:39:00,23.9,-99.9,-100.00,SSW,201,0.0,3.5,-999,0.00,,---,0.00,VWS V14.01,2013-02-05 05:39:00,
2013-02-05 00:40:00,23.1,-99.9,-100.00,SSW,193,0.0,0.0,-999,0.00,,---,0.00,VWS V14.01,2013-02-05 05:40:00,
2013-02-05 00:41:00,23.1,-99.9,-100.00,SSW,193,0.0,0.0,-999,0.00,,---,0.00,VWS V14.01,2013-02-05 05:41:00,
2013-02-05 00:42:00,24.2,-99.9,-100.00,SSW,201,0.0,3.5,-999,0.00,,---,0.00,VWS V14.01,2013-02-05 05:42:00,
2013-02-05 00:43:00,24.2,-99.9,-100.00,SSW,201,0.0,3.5,-999,0.00,,---,0.00,VWS V14.01,2013-02-05 05:43:00,
2013-02-05 00:44:00,24.2,-99.9,-100.00,SSW,201,0.0,3.5,-999,0.00,,---,0.00,VWS V14.01,2013-02-05 05:44:00,
2013-02-05 00:45:00,23.1,-99.9,-100.00,SSW,193,0.0,0.0,-999,0.00,,---,0.00,VWS V14.01,2013-02-05 05:45:00,
2013-02-05 00:46:00,23.1,-99.9,-100.00,SSW,193,0.0,0.0,-999,0.00,,---,0.00,VWS V14.01,2013-02-05 05:46:00,
2013-02-05 00:47:00,24.4,-99.9,-100.00,SSW,201,0.0,3.5,-999,0.00,,---,0.00,VWS V14.01,2013-02-05 05:47:00,
2013-02-05 00:48:00,23.9,-99.9,-100.00,SSW,201,0.0,3.5,-999,0.00,,---,0.00,VWS V14.01,2013-02-05 05:48:00,
2013-02-05 00:49:00,23.9,-99.9,-100.00,SSW,201,0.0,3.5,-999,0.00,,---,0.00,VWS V14.01,2013-02-05 05:49:00,
2013-02-05 00:50:00,24.2,-99.9,-100.00,SSW,201,0.0,3.5,-999,0.00,,---,0.00,VWS V14.01,2013-02-05 05:50:00,
2013-02-05 00:51:00,23.1,-99.9,-100.00,SSW,193,0.0,0.0,-999,0.00,,---,0.00,VWS V14.01,2013-02-05 05:51:00,
2013-02-05 00:52:00,24.2,-99.9,-100.00,SSW,201,0.0,3.5,-999,0.00,,---,0.00,VWS V14.01,2013-02-05 05:52:00,
2013-02-05 00:53:00,24.4,-99.9,-100.00,SSW,201,0.0,3.5,-999,0.00,,---,0.00,VWS V14.01,2013-02-05 05:53:00,
2013-02-05 00:54:00,24.2,-99.9,-100.00,SSW,201,0.0,3.5,-999,0.00,,---,0.00,VWS V14.01,2013-02-05 05:54:00,
2013-02-05 00:55:00,23.7,-99.9,-100.00,SSW,201,0.0,3.5,-999,0.00,,---,0.00,VWS V14.01,2013-02-05 05:55:00,
2013-02-05 00:56:00,22.9,-99.9,-100.00,SSW,193,0.0,0.0,-999,0.00,,---,0.00,VWS V14.01,2013-02-05 05:56:00,
2013-02-05 00:57:00,23.9,-99.9,-100.00,SSW,201,0.0,3.5,-999,0.00,,---,0.00,VWS V14.01,2013-02-05 05:57:00,
2013-02-05 00:58:00,23.9,-99.9,-100.00,SW,214,0.0,3.5,-999,0.00,,---,0.00,VWS V14.01,2013-02-05 05:58:00,
2013-02-05 00:59:00,23.9,-99.9,-100.00,SW,214,0.0,3.5,-999,0.00,,---,0.00,VWS V14.01,2013-02-05 05:59:00,
2013-02-05 01:00:00,23.9,-99.9,-100.00,SW,214,0.0,3.5,-999,0.00,,---,0.00,VWS V14.01,2013-02-05 06:00:00,
2013-02-05 01:01:00,23.1,-99.9,-100.00,SSW,193,0.0,0.0,-999,0.00,,---,0.00,VWS V14.01,2013-02-05 06:01:00,
2013-02-05 01:02:00,23.1,-99.9,-100.00,SSW,193,0.0,0.0,-999,0.00,,---,0.00,VWS V14.01,2013-02-05 06:02:00,
2013-02-05 01:06:00,23.1,-99.9,-100.00,SSW,193,0.0,0.0,-999,0.00,,---,0.00,VWS V14.01,2013-02-05 06:06:00,
2013-02-05 01:07:00,23.1,-99.9,-100.00,SSW,193,0.0,0.0,-999,0.00,,---,0.00,VWS V14.01,2013-02-05 06:07:00,
2013-02-05 01:11:00,22.6,-99.9,-100.00,SSW,193,0.0,0.0,-999,0.00,,---,0.00,VWS V14.01,2013-02-05 06:11:00,
2013-02-05 01:12:00,22.6,-99.9,-100.00,SSW,193,0.0,0.0,-999,0.00,,---,0.00,VWS V14.01,2013-02-05 06:12:00,
2013-02-05 01:16:00,23.1,-99.9,-100.00,SSW,193,0.0,0.0,-999,0.00,,---,0.00,VWS V14.01,2013-02-05 06:16:00,
2013-02-05 01:17:00,23.1,-99.9,-100.00,SSW,193,0.0,0.0,-999,0.00,,---,0.00,VWS V14.01,2013-02-05 06:17:00,
2013-02-05 01:21:00,23.1,-99.9,-100.00,SSW,193,0.0,0.0,-999,0.00,,---,0.00,VWS V14.01,2013-02-05 06:21:00,
2013-02-05 01:22:00,22.9,-99.9,-100.00,SSW,193,0.0,0.0,-999,0.00,,---,0.00,VWS V14.01,2013-02-05 06:22:00,
2013-02-05 01:26:00,23.1,-99.9,-100.00,SSW,193,0.0,0.0,-999,0.00,,---,0.00,VWS V14.01,2013-02-05 06:26:00,
2013-02-05 01:27:00,23.7,-99.9,-100.00,SSW,193,0.0,0.0,-999,0.00,,---,0.00,VWS V14.01,2013-02-05 06:27:00,
2013-02-05 01:31:00,23.7,-99.9,-100.00,SSW,193,0.0,0.0,-999,0.00,,---,0.00,VWS V14.01,2013-02-05 06:31:00,
2013-02-05 01:32:00,23.1,-99.9,-100.00,SSW,193,0.0,0.0,-999,0.00,,---,0.00,VWS V14.01,2013-02-05 06:32:00,
2013-02-05 01:36:00,23.4,-99.9,-100.00,SSW,193,0.0,0.0,-999,0.00,,---,0.00,VWS V14.01,2013-02-05 06:36:00,
2013-02-05 01:37:00,23.7,-99.9,-100.00,SSW,193,0.0,0.0,-999,0.00,,---,0.00,VWS V14.01,2013-02-05 06:37:00,
2013-02-05 01:38:00,23.4,-99.9,-100.00,SSW,193,0.0,0.0,-999,0.00,,---,0.00,VWS V14.01,2013-02-05 06:38:00,
2013-02-05 01:41:00,23.4,-99.9,-100.00,SSW,193,0.0,0.0,-999,0.00,,---,0.00,VWS V14.01,2013-02-05 06:41:00,
2013-02-05 01:42:00,23.1,-99.9,-100.00,SSW,193,0.0,0.0,-999,0.00,,---,0.00,VWS V14.01,2013-02-05 06:42:00,
2013-02-05 01:44:00,23.1,-99.9,-100.00,SSW,193,0.0,0.0,-999,0.00,,---,0.00,VWS V14.01,2013-02-05 06:44:00,
2013-02-05 01:47:00,23.4,-99.9,-100.00,SSW,193,0.0,0.0,-999,0.00,,---,0.00,VWS V14.01,2013-02-05 06:47:00,
2013-02-05 01:49:00,23.4,-99.9,-100.00,SSW,193,0.0,0.0,-999,0.00,,---,0.00,VWS V14.01,2013-02-05 06:49:00,
2013-02-05 01:52:00,23.1,-99.9,-100.00,SSW,193,0.0,0.0,-999,0.00,,---,0.00,VWS V14.01,2013-02-05 06:52:00,
2013-02-05 01:54:00,23.4,-99.9,-100.00,SSW,193,0.0,0.0,-999,0.00,,---,0.00,VWS V14.01,2013-02-05 06:54:00,
2013-02-05 01:57:00,23.1,-99.9,-100.00,SSW,193,0.0,0.0,-999,0.00,,---,0.00,VWS V14.01,2013-02-05 06:57:00,
2013-02-05 01:59:00,23.4,-99.9,-100.00,SSW,193,0.0,0.0,-999,0.00,,---,0.00,VWS V14.01,2013-02-05 06:59:00,
2013-02-05 02:02:00,23.1,-99.9,-100.00,SSW,193,0.0,0.0,-999,0.00,,---,0.00,VWS V14.01,2013-02-05 07:02:00,
2013-02-05 02:04:00,23.7,-99.9,-100.00,SSW,193,0.0,0.0,-999,0.00,,---,0.00,VWS V14.01,2013-02-05 07:04:00,
2013-02-05 02:07:00,23.7,-99.9,-100.00,SSW,193,0.0,0.0,-999,0.00,,---,0.00,VWS V14.01,2013-02-05 07:07:00,
2013-02-05 02:09:00,23.4,-99.9,-100.00,SSW,193,0.0,0.0,-999,0.00,,---,0.00,VWS V14.01,2013-02-05 07:09:00,
2013-02-05 02:12:00,23.1,-99.9,-100.00,SSW,193,0.0,0.0,-999,0.00,,---,0.00,VWS V14.01,2013-02-05 07:12:00,
2013-02-05 02:14:00,22.9,-99.9,-100.00,SSW,193,0.0,0.0,-999,0.00,,---,0.00,VWS V14.01,2013-02-05 07:14:00,
2013-02-05 02:17:00,23.4,-99.9,-100.00,SSW,193,0.0,0.0,-999,0.00,,---,0.00,VWS V14.01,2013-02-05 07:17:00,
2013-02-05 02:19:00,23.1,-99.9,-100.00,SSW,193,0.0,0.0,-999,0.00,,---,0.00,VWS V14.01,2013-02-05 07:19:00,
2013-02-05 02:22:00,23.1,-99.9,-100.00,SSW,193,0.0,0.0,-999,0.00,,---,0.00,VWS V14.01,2013-02-05 07:22:00,
2013-02-05 02:23:00,23.1,-99.9,-100.00,SSW,193,0.0,0.0,-999,0.00,,---,0.00,VWS V14.01,2013-02-05 07:23:00,
2013-02-05 02:24:00,23.4,-99.9,-100.00,SSW,193,0.0,0.0,-999,0.00,,---,0.00,VWS V14.01,2013-02-05 07:24:00,
2013-02-05 02:27:00,22.9,-99.9,-100.00,SSW,193,0.0,0.0,-999,0.00,,---,0.00,VWS V14.01,2013-02-05 07:27:00,
2013-02-05 02:28:00,23.4,-99.9,-100.00,SSW,193,0.0,0.0,-999,0.00,,---,0.00,VWS V14.01,2013-02-05 07:28:00,
2013-02-05 02:29:00,23.4,-99.9,-100.00,SSW,193,0.0,0.0,-999,0.00,,---,0.00,VWS V14.01,2013-02-05 07:29:00,
2013-02-05 02:32:00,22.9,-99.9,-100.00,SSW,193,0.0,0.0,-999,0.00,,---,0.00,VWS V14.01,2013-02-05 07:32:00,
2013-02-05 02:33:00,22.9,-99.9,-100.00,SSW,193,0.0,0.0,-999,0.00,,---,0.00,VWS V14.01,2013-02-05 07:33:00,
2013-02-05 02:34:00,22.6,-99.9,-100.00,SSW,193,0.0,0.0,-999,0.00,,---,0.00,VWS V14.01,2013-02-05 07:34:00,
2013-02-05 02:37:00,23.4,-99.9,-100.00,SSW,193,0.0,0.0,-999,0.00,,---,0.00,VWS V14.01,2013-02-05 07:37:00,
2013-02-05 02:38:00,23.4,-99.9,-100.00,SSW,193,0.0,0.0,-999,0.00,,---,0.00,VWS V14.01,2013-02-05 07:38:00,
2013-02-05 02:39:00,23.1,-99.9,-100.00,SSW,193,0.0,0.0,-999,0.00,,---,0.00,VWS V14.01,2013-02-05 07:39:00,
2013-02-05 02:42:00,23.1,-99.9,-100.00,SSW,193,0.0,0.0,-999,0.00,,---,0.00,VWS V14.01,2013-02-05 07:42:00,
2013-02-05 02:43:00,23.7,-99.9,-100.00,SSW,193,0.0,0.0,-999,0.00,,---,0.00,VWS V14.01,2013-02-05 07:43:00,
2013-02-05 02:44:00,22.9,-99.9,-100.00,SSW,193,0.0,0.0,-999,0.00,,---,0.00,VWS V14.01,2013-02-05 07:44:00,
2013-02-05 02:48:00,22.9,-99.9,-100.00,SSW,193,0.0,0.0,-999,0.00,,---,0.00,VWS V14.01,2013-02-05 07:48:00,
2013-02-05 02:49:00,22.9,-99.9,-100.00,SSW,193,0.0,0.0,-999,0.00,,---,0.00,VWS V14.01,2013-02-05 07:49:00,
2013-02-05 02:53:00,23.1,-99.9,-100.00,SSW,193,0.0,0.0,-999,0.00,,---,0.00,VWS V14.01,2013-02-05 07:53:00,
2013-02-05 02:54:00,23.4,-99.9,-100.00,SSW,193,0.0,0.0,-999,0.00,,---,0.00,VWS V14.01,2013-02-05 07:54:00,
2013-02-05 02:58:00,22.9,-99.9,-100.00,SSW,193,0.0,0.0,-999,0.00,,---,0.00,VWS V14.01,2013-02-05 07:58:00,
2013-02-05 02:59:00,23.1,-99.9,-100.00,SSW,193,0.0,0.0,-999,0.00,,---,0.00,VWS V14.01,2013-02-05 07:59:00,
2013-02-05 03:03:00,22.9,-99.9,-100.00,SSW,193,0.0,0.0,-999,0.00,,---,0.00,VWS V14.01,2013-02-05 08:03:00,
2013-02-05 03:05:00,22.6,-99.9,-100.00,SSW,193,0.0,0.0,-999,0.00,,---,0.00,VWS V14.01,2013-02-05 08:05:00,
2013-02-05 03:08:00,22.6,-99.9,-100.00,SSW,193,0.0,0.0,-999,0.00,,---,0.00,VWS V14.01,2013-02-05 08:08:00,
2013-02-05 03:10:00,22.9,-99.9,-100.00,SSW,193,0.0,0.0,-999,0.00,,---,0.00,VWS V14.01,2013-02-05 08:10:00,
2013-02-05 03:13:00,22.6,-99.9,-100.00,SSW,193,0.0,0.0,-999,0.00,,---,0.00,VWS V14.01,2013-02-05 08:13:00,
2013-02-05 03:14:00,22.9,-99.9,-100.00,SSW,193,0.0,0.0,-999,0.00,,---,0.00,VWS V14.01,2013-02-05 08:14:00,
2013-02-05 03:15:00,23.1,-99.9,-100.00,SSW,193,0.0,0.0,-999,0.00,,---,0.00,VWS V14.01,2013-02-05 08:15:00,
2013-02-05 03:18:00,22.6,-99.9,-100.00,SSW,193,0.0,0.0,-999,0.00,,---,0.00,VWS V14.01,2013-02-05 08:18:00,
2013-02-05 03:19:00,22.9,-99.9,-100.00,SSW,193,0.0,0.0,-999,0.00,,---,0.00,VWS V14.01,2013-02-05 08:19:00,
2013-02-05 03:20:00,22.6,-99.9,-100.00,SSW,193,0.0,0.0,-999,0.00,,---,0.00,VWS V14.01,2013-02-05 08:20:00,
2013-02-05 03:23:00,22.3,-99.9,-100.00,SSW,193,0.0,0.0,-999,0.00,,---,0.00,VWS V14.01,2013-02-05 08:23:00,
2013-02-05 03:24:00,22.3,-99.9,-100.00,SSW,193,0.0,0.0,-999,0.00,,---,0.00,VWS V14.01,2013-02-05 08:24:00,
2013-02-05 03:25:00,22.6,-99.9,-100.00,SSW,193,0.0,0.0,-999,0.00,,---,0.00,VWS V14.01,2013-02-05 08:25:00,
2013-02-05 03:28:00,22.3,-99.9,-100.00,SSW,193,0.0,0.0,-999,0.00,,---,0.01,VWS V14.01,2013-02-05 08:28:00,
2013-02-05 03:29:00,22.3,-99.9,-100.00,SSW,193,0.0,0.0,-999,0.00,,---,0.01,VWS V14.01,2013-02-05 08:29:00,
2013-02-05 03:30:00,22.1,-99.9,-100.00,SSW,193,0.0,0.0,-999,0.00,,---,0.01,VWS V14.01,2013-02-05 08:30:00,
2013-02-05 03:33:00,22.3,-99.9,-100.00,SSW,193,0.0,0.0,-999,0.00,,---,0.01,VWS V14.01,2013-02-05 08:33:00,
2013-02-05 03:34:00,22.1,-99.9,-100.00,SSW,193,0.0,0.0,-999,0.00,,---,0.01,VWS V14.01,2013-02-05 08:34:00,
2013-02-05 03:35:00,22.3,-99.9,-100.00,SSW,193,0.0,0.0,-999,0.00,,---,0.01,VWS V14.01,2013-02-05 08:35:00,
2013-02-05 03:38:00,22.6,-99.9,-100.00,SSW,193,0.0,0.0,-999,0.00,,---,0.01,VWS V14.01,2013-02-05 08:38:00,
2013-02-05 03:40:00,22.3,-99.9,-100.00,SSW,193,0.0,0.0,-999,0.00,,---,0.01,VWS V14.01,2013-02-05 08:40:00,
2013-02-05 03:43:00,22.3,-99.9,-100.00,SSW,193,0.0,0.0,-999,0.00,,---,0.01,VWS V14.01,2013-02-05 08:43:00,
2013-02-05 03:44:00,22.9,-99.9,-100.00,SSW,193,0.0,0.0,-999,0.00,,---,0.01,VWS V14.01,2013-02-05 08:44:00,
2013-02-05 03:45:00,23.1,-99.9,-100.00,SSW,193,0.0,0.0,-999,0.00,,---,0.01,VWS V14.01,2013-02-05 08:45:00,
2013-02-05 03:46:00,22.6,-99.9,-100.00,SSW,193,0.0,0.0,-999,0.00,,---,0.01,VWS V14.01,2013-02-05 08:46:00,
2013-02-05 03:49:00,22.3,-99.9,-100.00,SSW,193,0.0,0.0,-999,0.00,,---,0.01,VWS V14.01,2013-02-05 08:49:00,
2013-02-05 03:50:00,22.9,-99.9,-100.00,SSW,193,0.0,0.0,-999,0.00,,---,0.01,VWS V14.01,2013-02-05 08:50:00,
2013-02-05 03:51:00,23.1,-99.9,-100.00,SSW,193,0.0,0.0,-999,0.00,,---,0.01,VWS V14.01,2013-02-05 08:51:00,
2013-02-05 03:54:00,22.3,-99.9,-100.00,SSW,193,0.0,0.0,-999,0.00,,---,0.01,VWS V14.01,2013-02-05 08:54:00,
2013-02-05 03:55:00,22.6,-99.9,-100.00,SSW,193,0.0,0.0,-999,0.00,,---,0.01,VWS V14.01,2013-02-05 08:55:00,
2013-02-05 03:56:00,22.3,-99.9,-100.00,SSW,193,0.0,0.0,-999,0.00,,---,0.01,VWS V14.01,2013-02-05 08:56:00,
2013-02-05 03:59:00,22.1,-99.9,-100.00,SSW,193,0.0,0.0,-999,0.00,,---,0.01,VWS V14.01,2013-02-05 08:59:00,
2013-02-05 04:00:00,22.3,-99.9,-100.00,SSW,193,0.0,0.0,-999,0.00,,---,0.01,VWS V14.01,2013-02-05 09:00:00,
2013-02-05 04:01:00,22.6,-99.9,-100.00,SSW,193,0.0,0.0,-999,0.00,,---,0.01,VWS V14.01,2013-02-05 09:01:00,
2013-02-05 04:04:00,22.9,-99.9,-100.00,SSW,193,0.0,0.0,-999,0.00,,---,0.01,VWS V14.01,2013-02-05 09:04:00,
2013-02-05 04:05:00,23.1,-99.9,-100.00,SSW,193,0.0,0.0,-999,0.00,,---,0.01,VWS V14.01,2013-02-05 09:05:00,
2013-02-05 04:06:00,22.6,-99.9,-100.00,SSW,193,0.0,0.0,-999,0.00,,---,0.01,VWS V14.01,2013-02-05 09:06:00,
2013-02-05 04:09:00,22.6,-99.9,-100.00,SSW,193,0.0,0.0,-999,0.00,,---,0.01,VWS V14.01,2013-02-05 09:09:00,
2013-02-05 04:10:00,22.9,-99.9,-100.00,SSW,193,0.0,0.0,-999,0.00,,---,0.01,VWS V14.01,2013-02-05 09:10:00,
2013-02-05 04:11:00,22.3,-99.9,-100.00,SSW,193,0.0,0.0,-999,0.00,,---,0.01,VWS V14.01,2013-02-05 09:11:00,
2013-02-05 04:14:00,22.6,-99.9,-100.00,SSW,193,0.0,0.0,-999,0.00,,---,0.01,VWS V14.01,2013-02-05 09:14:00,
2013-02-05 04:15:00,22.3,-99.9,-100.00,SSW,193,0.0,0.0,-999,0.00,,---,0.01,VWS V14.01,2013-02-05 09:15:00,
2013-02-05 04:16:00,22.6,-99.9,-100.00,SSW,193,0.0,0.0,-999,0.00,,---,0.01,VWS V14.01,2013-02-05 09:16:00,
2013-02-05 04:19:00,22.9,-99.9,-100.00,SSW,193,0.0,0.0,-999,0.00,,---,0.01,VWS V14.01,2013-02-05 09:19:00,
2013-02-05 04:20:00,22.6,-99.9,-100.00,SSW,193,0.0,0.0,-999,0.00,,---,0.01,VWS V14.01,2013-02-05 09:20:00,
2013-02-05 04:21:00,22.6,-99.9,-100.00,SSW,193,0.0,0.0,-999,0.00,,---,0.01,VWS V14.01,2013-02-05 09:21:00,
2013-02-05 04:24:00,22.3,-99.9,-100.00,SSW,193,0.0,0.0,-999,0.00,,---,0.01,VWS V14.01,2013-02-05 09:24:00,
2013-02-05 04:26:00,22.1,-99.9,-100.00,SSW,193,0.0,0.0,-999,0.00,,---,0.01,VWS V14.01,2013-02-05 09:26:00,
2013-02-05 04:29:00,22.3,-99.9,-100.00,SSW,193,0.0,0.0,-999,0.00,,---,0.01,VWS V14.01,2013-02-05 09:29:00,
2013-02-05 04:30:00,22.3,-99.9,-100.00,SSW,193,0.0,0.0,-999,0.00,,---,0.01,VWS V14.01,2013-02-05 09:30:00,
2013-02-05 04:31:00,22.3,-99.9,-100.00,SSW,193,0.0,0.0,-999,0.00,,---,0.01,VWS V14.01,2013-02-05 09:31:00,
2013-02-05 04:35:00,22.1,-99.9,-100.00,SSW,193,0.0,0.0,-999,0.00,,---,0.01,VWS V14.01,2013-02-05 09:35:00,
2013-02-05 04:36:00,21.8,-99.9,-100.00,SSW,193,0.0,0.0,-999,0.00,,---,0.01,VWS V14.01,2013-02-05 09:36:00,
2013-02-05 04:40:00,21.8,-99.9,-100.00,SSW,193,0.0,0.0,-999,0.00,,---,0.01,VWS V14.01,2013-02-05 09:40:00,
2013-02-05 04:41:00,21.8,-99.9,-100.00,SSW,193,0.0,0.0,-999,0.00,,---,0.01,VWS V14.01,2013-02-05 09:41:00,
2013-02-05 04:45:00,22.1,-99.9,-100.00,SSW,193,0.0,0.0,-999,0.00,,---,0.01,VWS V14.01,2013-02-05 09:45:00,
2013-02-05 04:46:00,22.3,-99.9,-100.00,SSW,193,0.0,0.0,-999,0.00,,---,0.01,VWS V14.01,2013-02-05 09:46:00,
2013-02-05 04:50:00,22.1,-99.9,-100.00,SSW,193,0.0,0.0,-999,0.00,,---,0.01,VWS V14.01,2013-02-05 09:50:00,
2013-02-05 04:51:00,22.3,-99.9,-100.00,SSW,193,0.0,0.0,-999,0.00,,---,0.01,VWS V14.01,2013-02-05 09:51:00,
2013-02-05 04:52:00,22.1,-99.9,-100.00,SSW,193,0.0,0.0,-999,0.00,,---,0.01,VWS V14.01,2013-02-05 09:52:00,
2013-02-05 04:55:00,22.1,-99.9,-100.00,SSW,193,0.0,0.0,-999,0.00,,---,0.01,VWS V14.01,2013-02-05 09:55:00,
2013-02-05 04:56:00,21.8,-99.9,-100.00,SSW,193,0.0,0.0,-999,0.00,,---,0.01,VWS V14.01,2013-02-05 09:56:00,
2013-02-05 04:57:00,22.1,-99.9,-100.00,SSW,193,0.0,0.0,-999,0.00,,---,0.01,VWS V14.01,2013-02-05 09:57:00,
2013-02-05 05:00:00,22.3,-99.9,-100.00,SSW,193,0.0,0.0,-999,0.00,,---,0.01,VWS V14.01,2013-02-05 10:00:00,
2013-02-05 05:01:00,22.1,-99.9,-100.00,SSW,193,0.0,0.0,-999,0.00,,---,0.01,VWS V14.01,2013-02-05 10:01:00,
2013-02-05 05:02:00,22.3,-99.9,-100.00,SSW,193,0.0,0.0,-999,0.00,,---,0.01,VWS V14.01,2013-02-05 10:02:00,
2013-02-05 05:05:00,22.3,-99.9,-100.00,SSW,193,0.0,0.0,-999,0.00,,---,0.01,VWS V14.01,2013-02-05 10:05:00,
2013-02-05 05:06:00,22.3,-99.9,-100.00,SSW,193,0.0,0.0,-999,0.00,,---,0.01,VWS V14.01,2013-02-05 10:06:00,
2013-02-05 05:07:00,22.6,-99.9,-100.00,SSW,193,0.0,0.0,-999,0.00,,---,0.01,VWS V14.01,2013-02-05 10:07:00,
2013-02-05 05:10:00,21.3,-99.9,-100.00,SSW,193,0.0,0.0,-999,0.00,,---,0.01,VWS V14.01,2013-02-05 10:10:00,
2013-02-05 05:11:00,22.1,-99.9,-100.00,SSW,193,0.0,0.0,-999,0.00,,---,0.01,VWS V14.01,2013-02-05 10:11:00,
2013-02-05 05:12:00,22.1,-99.9,-100.00,SSW,193,0.0,0.0,-999,0.00,,---,0.01,VWS V14.01,2013-02-05 10:12:00,
2013-02-05 05:15:00,21.8,-99.9,-100.00,SSW,193,0.0,0.0,-999,0.00,,---,0.01,VWS V14.01,2013-02-05 10:15:00,
2013-02-05 05:16:00,21.5,-99.9,-100.00,SSW,193,0.0,0.0,-999,0.00,,---,0.01,VWS V14.01,2013-02-05 10:16:00,
2013-02-05 05:18:00,21.8,-99.9,-100.00,SSW,193,0.0,0.0,-999,0.00,,---,0.01,VWS V14.01,2013-02-05 10:18:00,
2013-02-05 05:20:00,21.8,-99.9,-100.00,SSW,193,0.0,0.0,-999,0.00,,---,0.01,VWS V14.01,2013-02-05 10:20:00,
2013-02-05 05:21:00,21.8,-99.9,-100.00,SSW,193,0.0,0.0,-999,0.00,,---,0.01,VWS V14.01,2013-02-05 10:21:00,
2013-02-05 05:22:00,21.8,-99.9,-100.00,SSW,193,0.0,0.0,-999,0.00,,---,0.01,VWS V14.01,2013-02-05 10:22:00,
2013-02-05 05:23:00,21.8,-99.9,-100.00,SSW,193,0.0,0.0,-999,0.00,,---,0.01,VWS V14.01,2013-02-05 10:23:00,
2013-02-05 05:25:00,21.8,-99.9,-100.00,SSW,193,0.0,0.0,-999,0.00,,---,0.01,VWS V14.01,2013-02-05 10:25:00,
2013-02-05 05:26:00,21.3,-99.9,-100.00,SSW,193,0.0,0.0,-999,0.00,,---,0.01,VWS V14.01,2013-02-05 10:26:00,
2013-02-05 05:27:00,21.3,-99.9,-100.00,SSW,193,0.0,0.0,-999,0.00,,---,0.01,VWS V14.01,2013-02-05 10:27:00,
2013-02-05 05:28:00,21.5,-99.9,-100.00,SSW,193,0.0,0.0,-999,0.00,,---,0.01,VWS V14.01,2013-02-05 10:28:00,
2013-02-05 05:30:00,22.1,-99.9,-100.00,SSW,193,0.0,0.0,-999,0.00,,---,0.01,VWS V14.01,2013-02-05 10:30:00,
2013-02-05 05:32:00,21.8,-99.9,-100.00,SSW,193,0.0,0.0,-999,0.00,,---,0.01,VWS V14.01,2013-02-05 10:32:00,
2013-02-05 05:33:00,21.5,-99.9,-100.00,SSW,193,0.0,0.0,-999,0.00,,---,0.01,VWS V14.01,2013-02-05 10:33:00,
2013-02-05 05:35:00,21.5,-99.9,-100.00,SSW,193,0.0,0.0,-999,0.00,,---,0.01,VWS V14.01,2013-02-05 10:35:00,
2013-02-05 05:37:00,21.5,-99.9,-100.00,SSW,193,0.0,0.0,-999,0.00,,---,0.01,VWS V14.01,2013-02-05 10:37:00,
2013-02-05 05:38:00,21.3,-99.9,-100.00,SSW,193,0.0,0.0,-999,0.00,,---,0.01,VWS V14.01,2013-02-05 10:38:00,
2013-02-05 05:41:00,21.5,-99.9,-100.00,SSW,193,0.0,0.0,-999,0.00,,---,0.01,VWS V14.01,2013-02-05 10:41:00,
2013-02-05 05:42:00,21.3,-99.9,-100.00,SSW,193,0.0,0.0,-999,0.00,,---,0.01,VWS V14.01,2013-02-05 10:42:00,
2013-02-05 05:43:00,21.3,-99.9,-100.00,SSW,193,0.0,0.0,-999,0.00,,---,0.01,VWS V14.01,2013-02-05 10:43:00,
2013-02-05 05:46:00,21.5,-99.9,-100.00,SSW,193,0.0,0.0,-999,0.00,,---,0.01,VWS V14.01,2013-02-05 10:46:00,
2013-02-05 05:47:00,20.8,-99.9,-100.00,SSW,193,0.0,0.0,-999,0.00,,---,0.01,VWS V14.01,2013-02-05 10:47:00,
2013-02-05 05:48:00,20.8,-99.9,-100.00,SSW,193,0.0,0.0,-999,0.00,,---,0.01,VWS V14.01,2013-02-05 10:48:00,
2013-02-05 05:51:00,21.3,-99.9,-100.00,SSW,193,0.0,0.0,-999,0.00,,---,0.01,VWS V14.01,2013-02-05 10:51:00,
2013-02-05 05:52:00,21.3,-99.9,-100.00,SSW,193,0.0,0.0,-999,0.00,,---,0.01,VWS V14.01,2013-02-05 10:52:00,
2013-02-05 05:54:00,21.3,-99.9,-100.00,SSW,193,0.0,0.0,-999,0.00,,---,0.01,VWS V14.01,2013-02-05 10:54:00,
2013-02-05 05:56:00,21.3,-99.9,-100.00,SSW,193,0.0,0.0,-999,0.00,,---,0.01,VWS V14.01,2013-02-05 10:56:00,
2013-02-05 05:57:00,21.3,-99.9,-100.00,SSW,193,0.0,0.0,-999,0.00,,---,0.01,VWS V14.01,2013-02-05 10:57:00,
2013-02-05 05:59:00,20.8,-99.9,-100.00,SSW,193,0.0,0.0,-999,0.00,,---,0.01,VWS V14.01,2013-02-05 10:59:00,
2013-02-05 06:01:00,21.0,-99.9,-100.00,SSW,193,0.0,0.0,-999,0.00,,---,0.01,VWS V14.01,2013-02-05 11:01:00,
2013-02-05 06:02:00,21.0,-99.9,-100.00,SSW,193,0.0,0.0,-999,0.00,,---,0.01,VWS V14.01,2013-02-05 11:02:00,
2013-02-05 06:04:00,20.8,-99.9,-100.00,SSW,193,0.0,0.0,-999,0.00,,---,0.01,VWS V14.01,2013-02-05 11:04:00,
2013-02-05 06:06:00,20.8,-99.9,-100.00,SSW,193,0.0,0.0,-999,0.00,,---,0.01,VWS V14.01,2013-02-05 11:06:00,
2013-02-05 06:07:00,21.3,-99.9,-100.00,SSW,193,0.0,0.0,-999,0.00,,---,0.01,VWS V14.01,2013-02-05 11:07:00,
2013-02-05 06:09:00,20.5,-99.9,-100.00,SSW,193,0.0,0.0,-999,0.00,,---,0.01,VWS V14.01,2013-02-05 11:09:00,
2013-02-05 06:11:00,20.8,-99.9,-100.00,SSW,193,0.0,0.0,-999,0.00,,---,0.01,VWS V14.01,2013-02-05 11:11:00,
2013-02-05 06:12:00,21.0,-99.9,-100.00,SSW,193,0.0,0.0,-999,0.00,,---,0.01,VWS V14.01,2013-02-05 11:12:00,
2013-02-05 06:14:00,20.5,-99.9,-100.00,SSW,193,0.0,0.0,-999,0.00,,---,0.01,VWS V14.01,2013-02-05 11:14:00,
2013-02-05 06:16:00,20.5,-99.9,-100.00,SSW,193,0.0,0.0,-999,0.00,,---,0.01,VWS V14.01,2013-02-05 11:16:00,
2013-02-05 06:17:00,20.5,-99.9,-100.00,SSW,193,0.0,0.0,-999,0.00,,---,0.01,VWS V14.01,2013-02-05 11:17:00,
2013-02-05 06:19:00,20.5,-99.9,-100.00,SSW,193,0.0,0.0,-999,0.00,,---,0.01,VWS V14.01,2013-02-05 11:19:00,
2013-02-05 06:22:00,20.5,-99.9,-100.00,SSW,193,0.0,0.0,-999,0.00,,---,0.01,VWS V14.01,2013-02-05 11:22:00,
2013-02-05 06:23:00,20.0,-99.9,-100.00,SSW,193,0.0,0.0,-999,0.00,,---,0.01,VWS V14.01,2013-02-05 11:23:00,
2013-02-05 06:24:00,20.0,-99.9,-100.00,SSW,193,0.0,0.0,-999,0.00,,---,0.01,VWS V14.01,2013-02-05 11:24:00,
2013-02-05 06:27:00,20.5,-99.9,-100.00,SSW,193,0.0,0.0,-999,0.00,,---,0.01,VWS V14.01,2013-02-05 11:27:00,
2013-02-05 06:28:00,21.0,-99.9,-100.00,SSW,193,0.0,0.0,-999,0.00,,---,0.01,VWS V14.01,2013-02-05 11:28:00,
2013-02-05 06:29:00,20.8,-99.9,-100.00,SSW,193,0.0,0.0,-999,0.00,,---,0.01,VWS V14.01,2013-02-05 11:29:00,
2013-02-05 06:32:00,20.8,-99.9,-100.00,SSW,193,0.0,0.0,-999,0.00,,---,0.01,VWS V14.01,2013-02-05 11:32:00,
2013-02-05 06:33:00,20.8,-99.9,-100.00,SSW,193,0.0,0.0,-999,0.00,,---,0.01,VWS V14.01,2013-02-05 11:33:00,
2013-02-05 06:34:00,21.0,-99.9,-100.00,SSW,193,0.0,0.0,-999,0.00,,---,0.01,VWS V14.01,2013-02-05 11:34:00,
2013-02-05 06:37:00,21.3,-99.9,-100.00,SSW,193,0.0,0.0,-999,0.00,,---,0.01,VWS V14.01,2013-02-05 11:37:00,
2013-02-05 06:38:00,20.8,-99.9,-100.00,SSW,193,0.0,0.0,-999,0.00,,---,0.01,VWS V14.01,2013-02-05 11:38:00,
2013-02-05 06:39:00,20.5,-99.9,-100.00,SSW,193,0.0,0.0,-999,0.00,,---,0.01,VWS V14.01,2013-02-05 11:39:00,
2013-02-05 06:42:00,20.8,-99.9,-100.00,SSW,193,0.0,0.0,-999,0.00,,---,0.01,VWS V14.01,2013-02-05 11:42:00,
2013-02-05 06:43:00,20.5,-99.9,-100.00,SSW,193,0.0,0.0,-999,0.00,,---,0.01,VWS V14.01,2013-02-05 11:43:00,
2013-02-05 06:45:00,20.5,-99.9,-100.00,SSW,193,0.0,0.0,-999,0.00,,---,0.01,VWS V14.01,2013-02-05 11:45:00,
2013-02-05 06:47:00,20.2,-99.9,-100.00,SSW,193,0.0,0.0,-999,0.00,,---,0.01,VWS V14.01,2013-02-05 11:47:00,
2013-02-05 06:48:00,20.5,-99.9,-100.00,SSW,193,0.0,0.0,-999,0.00,,---,0.01,VWS V14.01,2013-02-05 11:48:00,
2013-02-05 06:50:00,20.8,-99.9,-100.00,SSW,193,0.0,0.0,-999,0.00,,---,0.01,VWS V14.01,2013-02-05 11:50:00,
2013-02-05 06:52:00,20.5,-99.9,-100.00,SSW,193,0.0,0.0,-999,0.00,,---,0.01,VWS V14.01,2013-02-05 11:52:00,
2013-02-05 06:53:00,20.8,-99.9,-100.00,SSW,193,0.0,0.0,-999,0.00,,---,0.01,VWS V14.01,2013-02-05 11:53:00,
2013-02-05 06:55:00,20.2,-99.9,-100.00,SSW,193,0.0,0.0,-999,0.00,,---,0.01,VWS V14.01,2013-02-05 11:55:00,
2013-02-05 06:58:00,20.2,-99.9,-100.00,SSW,193,0.0,0.0,-999,0.00,,---,0.01,VWS V14.01,2013-02-05 11:58:00,
2013-02-05 06:59:00,20.8,-99.9,-100.00,SSW,193,0.0,0.0,-999,0.00,,---,0.01,VWS V14.01,2013-02-05 11:59:00,
2013-02-05 07:00:00,20.2,-99.9,-100.00,SSW,193,0.0,0.0,-999,0.00,,---,0.01,VWS V14.01,2013-02-05 12:00:00,
2013-02-05 07:03:00,20.0,-99.9,-100.00,SSW,193,0.0,0.0,-999,0.00,,---,0.01,VWS V14.01,2013-02-05 12:03:00,
2013-02-05 07:04:00,20.0,-99.9,-100.00,SSW,193,0.0,0.0,-999,0.00,,---,0.01,VWS V14.01,2013-02-05 12:04:00,
2013-02-05 07:05:00,20.2,-99.9,-100.00,SSW,193,0.0,0.0,-999,0.00,,---,0.01,VWS V14.01,2013-02-05 12:05:00,
2013-02-05 07:08:00,20.5,-99.9,-100.00,SSW,193,0.0,0.0,-999,0.00,,---,0.01,VWS V14.01,2013-02-05 12:08:00,
2013-02-05 07:09:00,20.0,-99.9,-100.00,SSW,193,0.0,0.0,-999,0.00,,---,0.01,VWS V14.01,2013-02-05 12:09:00,
2013-02-05 07:10:00,20.0,-99.9,-100.00,SSW,193,0.0,0.0,-999,0.00,,---,0.01,VWS V14.01,2013-02-05 12:10:00,
2013-02-05 07:13:00,20.2,-99.9,-100.00,SSW,193,0.0,0.0,-999,0.00,,---,0.01,VWS V14.01,2013-02-05 12:13:00,
2013-02-05 07:14:00,20.0,-99.9,-100.00,SSW,193,0.0,0.0,-999,0.00,,---,0.01,VWS V14.01,2013-02-05 12:14:00,
2013-02-05 07:15:00,19.7,-99.9,-100.00,SSW,193,0.0,0.0,-999,0.00,,---,0.01,VWS V14.01,2013-02-05 12:15:00,
2013-02-05 07:18:00,19.7,-99.9,-100.00,SSW,193,0.0,0.0,-999,0.00,,---,0.01,VWS V14.01,2013-02-05 12:18:00,
2013-02-05 07:19:00,20.0,-99.9,-100.00,SSW,193,0.0,0.0,-999,0.00,,---,0.01,VWS V14.01,2013-02-05 12:19:00,
2013-02-05 07:20:00,19.5,-99.9,-100.00,SSW,193,0.0,0.0,-999,0.00,,---,0.01,VWS V14.01,2013-02-05 12:20:00,
2013-02-05 07:23:00,20.0,-99.9,-100.00,SSW,193,0.0,0.0,-999,0.00,,---,0.01,VWS V14.01,2013-02-05 12:23:00,
2013-02-05 07:24:00,19.7,-99.9,-100.00,SSW,193,0.0,0.0,-999,0.00,,---,0.01,VWS V14.01,2013-02-05 12:24:00,
2013-02-05 07:25:00,20.0,-99.9,-100.00,SSW,193,0.0,0.0,-999,0.00,,---,0.01,VWS V14.01,2013-02-05 12:25:00,
2013-02-05 07:28:00,20.0,-99.9,-100.00,SSW,193,0.0,0.0,-999,0.00,,---,0.01,VWS V14.01,2013-02-05 12:28:00,
2013-02-05 07:29:00,20.0,-99.9,-100.00,SSW,193,0.0,0.0,-999,0.00,,---,0.01,VWS V14.01,2013-02-05 12:29:00,
2013-02-05 07:30:00,19.5,-99.9,-100.00,SSW,193,0.0,0.0,-999,0.00,,---,0.01,VWS V14.01,2013-02-05 12:30:00,
2013-02-05 07:33:00,19.5,-99.9,-100.00,SSW,193,0.0,0.0,-999,0.00,,---,0.01,VWS V14.01,2013-02-05 12:33:00,
2013-02-05 07:34:00,19.5,-99.9,-100.00,SSW,193,0.0,0.0,-999,0.00,,---,0.01,VWS V14.01,2013-02-05 12:34:00,
2013-02-05 07:35:00,19.7,-99.9,-100.00,SSW,193,0.0,0.0,-999,0.00,,---,0.01,VWS V14.01,2013-02-05 12:35:00,
2013-02-05 07:38:00,19.7,-99.9,-100.00,SSW,193,0.0,0.0,-999,0.00,,---,0.01,VWS V14.01,2013-02-05 12:38:00,
2013-02-05 07:39:00,19.5,-99.9,-100.00,SSW,193,0.0,0.0,-999,0.00,,---,0.01,VWS V14.01,2013-02-05 12:39:00,
2013-02-05 07:40:00,19.5,-99.9,-100.00,SSW,193,0.0,0.0,-999,0.00,,---,0.01,VWS V14.01,2013-02-05 12:40:00,
2013-02-05 07:43:00,19.5,-99.9,-100.00,SSW,193,0.0,0.0,-999,0.00,,---,0.01,VWS V14.01,2013-02-05 12:43:00,
2013-02-05 07:44:00,19.5,-99.9,-100.00,SSW,193,0.0,0.0,-999,0.00,,---,0.01,VWS V14.01,2013-02-05 12:44:00,
2013-02-05 07:45:00,19.5,-99.9,-100.00,SSW,193,0.0,0.0,-999,0.00,,---,0.01,VWS V14.01,2013-02-05 12:45:00,
2013-02-05 07:49:00,19.7,-99.9,-100.00,SSW,193,0.0,0.0,-999,0.00,,---,0.01,VWS V14.01,2013-02-05 12:49:00,
2013-02-05 07:50:00,20.0,-99.9,-100.00,SSW,193,0.0,0.0,-999,0.00,,---,0.01,VWS V14.01,2013-02-05 12:50:00,
2013-02-05 07:54:00,19.7,-99.9,-100.00,SSW,193,0.0,0.0,-999,0.00,,---,0.01,VWS V14.01,2013-02-05 12:54:00,
2013-02-05 07:55:00,19.7,-99.9,-100.00,SSW,193,0.0,0.0,-999,0.00,,---,0.01,VWS V14.01,2013-02-05 12:55:00,
2013-02-05 07:59:00,20.0,-99.9,-100.00,SSW,193,0.0,0.0,-999,0.00,,---,0.01,VWS V14.01,2013-02-05 12:59:00,
2013-02-05 08:00:00,20.0,-99.9,-100.00,SSW,193,0.0,0.0,-999,0.00,,---,0.01,VWS V14.01,2013-02-05 13:00:00,
2013-02-05 08:04:00,19.7,-99.9,-100.00,SSW,193,0.0,0.0,-999,0.00,,---,0.01,VWS V14.01,2013-02-05 13:04:00,
2013-02-05 08:05:00,20.2,-99.9,-100.00,SSW,193,0.0,0.0,-999,0.00,,---,0.01,VWS V14.01,2013-02-05 13:05:00,
2013-02-05 08:09:00,20.2,-99.9,-100.00,SSW,193,0.0,0.0,-999,0.00,,---,0.01,VWS V14.01,2013-02-05 13:09:00,
2013-02-05 08:10:00,20.2,-99.9,-100.00,SSW,193,0.0,0.0,-999,0.00,,---,0.01,VWS V14.01,2013-02-05 13:10:00,
2013-02-05 08:14:00,20.8,-99.9,-100.00,SSW,193,0.0,0.0,-999,0.00,,---,0.01,VWS V14.01,2013-02-05 13:14:00,
2013-02-05 08:15:00,20.2,-99.9,-100.00,SSW,193,0.0,0.0,-999,0.00,,---,0.01,VWS V14.01,2013-02-05 13:15:00,
2013-02-05 08:19:00,20.8,-99.9,-100.00,SSW,193,0.0,0.0,-999,0.00,,---,0.01,VWS V14.01,2013-02-05 13:19:00,
2013-02-05 08:20:00,20.5,-99.9,-100.00,SSW,193,0.0,0.0,-999,0.00,,---,0.01,VWS V14.01,2013-02-05 13:20:00,
2013-02-05 08:21:00,20.8,-99.9,-100.00,SSW,193,0.0,0.0,-999,0.00,,---,0.01,VWS V14.01,2013-02-05 13:21:00,
2013-02-05 08:25:00,21.3,-99.9,-100.00,SSW,193,0.0,0.0,-999,0.00,,---,0.01,VWS V14.01,2013-02-05 13:25:00,
2013-02-05 08:26:00,21.3,-99.9,-100.00,SSW,193,0.0,0.0,-999,0.00,,---,0.01,VWS V14.01,2013-02-05 13:26:00,
2013-02-05 08:30:00,21.5,-99.9,-100.00,SSW,193,0.0,0.0,-999,0.00,,---,0.01,VWS V14.01,2013-02-05 13:30:00,
2013-02-05 08:31:00,21.8,-99.9,-100.00,SSW,193,0.0,0.0,-999,0.00,,---,0.01,VWS V14.01,2013-02-05 13:31:00,
2013-02-05 08:35:00,22.1,-99.9,-100.00,SSW,193,0.0,0.0,-999,0.00,,---,0.01,VWS V14.01,2013-02-05 13:35:00,
2013-02-05 08:36:00,21.8,-99.9,-100.00,SSW,193,0.0,0.0,-999,0.00,,---,0.01,VWS V14.01,2013-02-05 13:36:00,
2013-02-05 08:40:00,21.8,-99.9,-100.00,SSW,193,0.0,0.0,-999,0.00,,---,0.01,VWS V14.01,2013-02-05 13:40:00,
2013-02-05 08:41:00,21.5,-99.9,-100.00,SSW,193,0.0,0.0,-999,0.00,,---,0.01,VWS V14.01,2013-02-05 13:41:00,
2013-02-05 08:45:00,22.3,-99.9,-100.00,SSW,193,0.0,0.0,-999,0.00,,---,0.01,VWS V14.01,2013-02-05 13:45:00,
2013-02-05 08:46:00,21.5,-99.9,-100.00,SSW,193,0.0,0.0,-999,0.00,,---,0.01,VWS V14.01,2013-02-05 13:46:00,
2013-02-05 08:50:00,22.3,-99.9,-100.00,SSW,193,0.0,0.0,-999,0.00,,---,0.01,VWS V14.01,2013-02-05 13:50:00,
2013-02-05 08:51:00,22.9,-99.9,-100.00,SSW,193,0.0,0.0,-999,0.00,,---,0.01,VWS V14.01,2013-02-05 13:51:00,
2013-02-05 08:55:00,23.7,-99.9,-100.00,SSW,193,0.0,0.0,-999,0.00,,---,0.01,VWS V14.01,2013-02-05 13:55:00,
2013-02-05 08:56:00,23.9,-99.9,-100.00,SSW,193,0.0,0.0,-999,0.00,,---,0.01,VWS V14.01,2013-02-05 13:56:00,
2013-02-05 09:00:00,24.2,-99.9,-100.00,SSW,193,0.0,0.0,-999,0.00,,---,0.01,VWS V14.01,2013-02-05 14:00:00,
2013-02-05 09:01:00,24.2,-99.9,-100.00,SSW,193,0.0,0.0,-999,0.00,,---,0.01,VWS V14.01,2013-02-05 14:01:00,
2013-02-05 09:05:00,23.1,-99.9,-100.00,SSW,193,0.0,0.0,-999,0.00,,---,0.01,VWS V14.01,2013-02-05 14:05:00,
2013-02-05 09:06:00,22.9,-99.9,-100.00,SSW,193,0.0,0.0,-999,0.00,,---,0.01,VWS V14.01,2013-02-05 14:06:00,
2013-02-05 09:10:00,22.6,-99.9,-100.00,SSW,193,0.0,0.0,-999,0.00,,---,0.01,VWS V14.01,2013-02-05 14:10:00,
2013-02-05 09:11:00,22.9,-99.9,-100.00,SSW,193,0.0,0.0,-999,0.00,,---,0.01,VWS V14.01,2013-02-05 14:11:00,
2013-02-05 09:15:00,23.9,-99.9,-100.00,SSW,193,0.0,0.0,-999,0.00,,---,0.01,VWS V14.01,2013-02-05 14:15:00,
2013-02-05 09:16:00,23.9,-99.9,-100.00,SSW,193,0.0,0.0,-999,0.00,,---,0.01,VWS V14.01,2013-02-05 14:16:00,
2013-02-05 09:20:00,23.9,-99.9,-100.00,SSW,193,0.0,0.0,-999,0.00,,---,0.01,VWS V14.01,2013-02-05 14:20:00,
2013-02-05 09:21:00,24.7,-99.9,-100.00,SSW,193,0.0,0.0,-999,0.00,,---,0.01,VWS V14.01,2013-02-05 14:21:00,
2013-02-05 09:25:00,24.9,-99.9,-100.00,SSW,193,0.0,0.0,-999,0.00,,---,0.01,VWS V14.01,2013-02-05 14:25:00,
2013-02-05 09:26:00,24.9,-99.9,-100.00,SSW,193,0.0,0.0,-999,0.00,,---,0.01,VWS V14.01,2013-02-05 14:26:00,
2013-02-05 09:30:00,24.7,-99.9,-100.00,SSW,193,0.0,0.0,-999,0.00,,---,0.01,VWS V14.01,2013-02-05 14:30:00,
2013-02-05 09:31:00,24.5,-99.9,-100.00,SSW,193,0.0,0.0,-999,0.00,,---,0.01,VWS V14.01,2013-02-05 14:31:00,
2013-02-05 09:35:00,25.4,-99.9,-100.00,SSW,193,0.0,0.0,-999,0.00,,---,0.01,VWS V14.01,2013-02-05 14:35:00,
2013-02-05 09:36:00,25.4,-99.9,-100.00,SSW,193,0.0,0.0,-999,0.00,,---,0.01,VWS V14.01,2013-02-05 14:36:00,
2013-02-05 09:37:00,24.8,-99.9,-100.00,SSW,193,0.0,0.0,-999,0.00,,---,0.01,VWS V14.01,2013-02-05 14:37:00,
2013-02-05 09:40:00,24.9,-99.9,-100.00,SSW,193,0.0,0.0,-999,0.00,,---,0.01,VWS V14.01,2013-02-05 14:40:00,
2013-02-05 09:41:00,25.4,-99.9,-100.00,SSW,193,0.0,0.0,-999,0.00,,---,0.01,VWS V14.01,2013-02-05 14:41:00,
2013-02-05 09:42:00,25.2,-99.9,-100.00,SSW,193,0.0,0.0,-999,0.00,,---,0.01,VWS V14.01,2013-02-05 14:42:00,
2013-02-05 09:46:00,24.8,-99.9,-100.00,SSW,193,0.0,0.0,-999,0.00,,---,0.01,VWS V14.01,2013-02-05 14:46:00,
2013-02-05 09:47:00,25.2,-99.9,-100.00,SSW,193,0.0,0.0,-999,0.00,,---,0.01,VWS V14.01,2013-02-05 14:47:00,
2013-02-05 09:51:00,26.2,-99.9,-100.00,SSW,193,0.0,0.0,-999,0.00,,---,0.01,VWS V14.01,2013-02-05 14:51:00,
2013-02-05 09:52:00,25.6,-99.9,-100.00,SSW,193,0.0,0.0,-999,0.00,,---,0.01,VWS V14.01,2013-02-05 14:52:00,
2013-02-05 09:56:00,28.8,-99.9,-100.00,SSW,193,0.0,0.0,-999,0.00,,---,0.01,VWS V14.01,2013-02-05 14:56:00,
2013-02-05 09:57:00,28.8,-99.9,-100.00,SSW,193,0.0,0.0,-999,0.00,,---,0.01,VWS V14.01,2013-02-05 14:57:00,
2013-02-05 10:01:00,29.5,-99.9,-100.00,SSW,193,0.0,0.0,-999,0.00,,---,0.01,VWS V14.01,2013-02-05 15:01:00,
2013-02-05 10:02:00,29.5,-99.9,-100.00,SSW,193,0.0,0.0,-999,0.00,,---,0.01,VWS V14.01,2013-02-05 15:02:00,
2013-02-05 10:07:00,30.0,-99.9,-100.00,SSW,193,0.0,0.0,-999,0.00,,---,0.01,VWS V14.01,2013-02-05 15:07:00,
2013-02-05 10:12:00,31.7,-99.9,-100.00,SSW,193,0.0,0.0,-999,0.00,,---,0.01,VWS V14.01,2013-02-05 15:12:00,
2013-02-05 10:17:00,31.0,-99.9,-100.00,SSW,193,0.0,0.0,-999,0.00,,---,0.01,VWS V14.01,2013-02-05 15:17:00,
2013-02-05 10:22:00,31.5,-99.9,-100.00,SSW,193,0.0,0.0,-999,0.00,,---,0.01,VWS V14.01,2013-02-05 15:22:00,
2013-02-05 10:27:00,30.8,-99.9,-100.00,SSW,193,0.0,0.0,-999,0.00,,---,0.01,VWS V14.01,2013-02-05 15:27:00,
2013-02-05 10:28:00,31.5,-99.9,-100.00,SSW,193,0.0,0.0,-999,0.00,,---,0.01,VWS V14.01,2013-02-05 15:28:00,
2013-02-05 10:32:00,33.0,-99.9,-100.00,SSW,193,0.0,0.0,-999,0.00,,---,0.01,VWS V14.01,2013-02-05 15:32:00,
2013-02-05 10:33:00,33.5,-99.9,-100.00,SSW,193,0.0,0.0,-999,0.00,,---,0.01,VWS V14.01,2013-02-05 15:33:00,
2013-02-05 10:37:00,38.2,-99.9,-100.00,SSW,193,0.0,0.0,-999,0.00,,---,0.01,VWS V14.01,2013-02-05 15:37:00,
2013-02-05 10:38:00,37.8,-99.9,-100.00,SSW,193,0.0,0.0,-999,0.00,,---,0.01,VWS V14.01,2013-02-05 15:38:00,
2013-02-05 10:43:00,36.4,-99.9,-100.00,SSW,193,0.0,0.0,-999,0.00,,---,0.01,VWS V14.01,2013-02-05 15:43:00,
2013-02-05 10:48:00,36.8,-99.9,-100.00,SSW,193,0.0,0.0,-999,0.00,,---,0.01,VWS V14.01,2013-02-05 15:48:00,
2013-02-05 10:53:00,37.5,-99.9,-100.00,SSW,193,0.0,0.0,-999,0.00,,---,0.01,VWS V14.01,2013-02-05 15:53:00,
2013-02-05 10:58:00,33.0,-99.9,-100.00,SSW,193,0.0,0.0,-999,0.00,,---,0.01,VWS V14.01,2013-02-05 15:58:00,
2013-02-05 11:03:00,35.7,-99.9,-100.00,SSW,193,0.0,0.0,-999,0.00,,---,0.01,VWS V14.01,2013-02-05 16:03:00,
2013-02-05 11:08:00,34.6,-99.9,-100.00,SSW,193,0.0,0.0,-999,0.00,,---,0.01,VWS V14.01,2013-02-05 16:08:00,
2013-02-05 11:13:00,36.3,-99.9,-100.00,SSW,193,0.0,0.0,-999,0.00,,---,0.01,VWS V14.01,2013-02-05 16:13:00,
2013-02-05 11:14:00,37.0,-99.9,-100.00,SSW,193,0.0,0.0,-999,0.00,,---,0.01,VWS V14.01,2013-02-05 16:14:00,
2013-02-05 11:18:00,36.0,-99.9,-100.00,SSW,193,0.0,0.0,-999,0.00,,---,0.01,VWS V14.01,2013-02-05 16:18:00,
2013-02-05 11:19:00,35.5,-99.9,-100.00,SSW,193,0.0,0.0,-999,0.00,,---,0.01,VWS V14.01,2013-02-05 16:19:00,
2013-02-05 11:23:00,33.3,-99.9,-100.00,SSW,193,0.0,0.0,-999,0.00,,---,0.01,VWS V14.01,2013-02-05 16:23:00,
2013-02-05 11:24:00,32.5,-99.9,-100.00,SSW,193,0.0,0.0,-999,0.00,,---,0.01,VWS V14.01,2013-02-05 16:24:00,
2013-02-05 11:28:00,33.3,-99.9,-100.00,SSW,193,0.0,0.0,-999,0.00,,---,0.01,VWS V14.01,2013-02-05 16:28:00,
2013-02-05 11:29:00,34.0,-99.9,-100.00,SSW,193,0.0,0.0,-999,0.00,,---,0.01,VWS V14.01,2013-02-05 16:29:00,
2013-02-05 11:33:00,34.0,-99.9,-100.00,SSW,193,0.0,0.0,-999,0.00,,---,0.01,VWS V14.01,2013-02-05 16:33:00,
2013-02-05 11:34:00,34.0,-99.9,-100.00,SSW,193,0.0,0.0,-999,0.00,,---,0.01,VWS V14.01,2013-02-05 16:34:00,
2013-02-05 11:38:00,33.8,-99.9,-100.00,SSW,193,0.0,0.0,-999,0.00,,---,0.02,VWS V14.01,2013-02-05 16:38:00,
2013-02-05 11:39:00,34.0,-99.9,-100.00,SSW,193,0.0,0.0,-999,0.00,,---,0.02,VWS V14.01,2013-02-05 16:39:00,
2013-02-05 11:43:00,30.5,-99.9,-100.00,SSW,193,0.0,0.0,-999,0.00,,---,0.03,VWS V14.01,2013-02-05 16:43:00,
2013-02-05 11:44:00,30.5,-99.9,-100.00,SSW,193,0.0,0.0,-999,0.00,,---,0.03,VWS V14.01,2013-02-05 16:44:00,
2013-02-05 11:48:00,32.0,-99.9,-100.00,SSW,193,0.0,0.0,-999,0.00,,---,0.04,VWS V14.01,2013-02-05 16:48:00,
2013-02-05 11:49:00,32.5,-99.9,-100.00,SSW,193,0.0,0.0,-999,0.00,,---,0.04,VWS V14.01,2013-02-05 16:49:00,
2013-02-05 11:54:00,33.8,-99.9,-100.00,SSW,193,0.0,0.0,-999,0.00,,---,0.04,VWS V14.01,2013-02-05 16:54:00,
2013-02-05 11:59:00,34.0,-99.9,-100.00,SSW,193,0.0,0.0,-999,0.00,,---,0.04,VWS V14.01,2013-02-05 16:59:00,
2013-02-05 12:04:00,33.0,-99.9,-100.00,SSW,193,0.0,0.0,-999,0.00,,---,0.04,VWS V14.01,2013-02-05 17:04:00,
2013-02-05 12:09:00,33.3,-99.9,-100.00,SSW,193,0.0,0.0,-999,0.00,,---,0.04,VWS V14.01,2013-02-05 17:09:00,
2013-02-05 12:14:00,34.6,-99.9,-100.00,SSW,193,0.0,0.0,-999,0.00,,---,0.04,VWS V14.01,2013-02-05 17:14:00,
2013-02-05 12:15:00,36.3,-99.9,-100.00,SSW,193,0.0,0.0,-999,0.00,,---,0.04,VWS V14.01,2013-02-05 17:15:00,
2013-02-05 12:19:00,36.8,-99.9,-100.00,SSW,193,0.0,0.0,-999,0.00,,---,0.04,VWS V14.01,2013-02-05 17:19:00,
2013-02-05 12:20:00,36.5,-99.9,-100.00,SSW,193,0.0,0.0,-999,0.00,,---,0.04,VWS V14.01,2013-02-05 17:20:00,
2013-02-05 12:24:00,36.0,-99.9,-100.00,SSW,193,0.0,0.0,-999,0.00,,---,0.04,VWS V14.01,2013-02-05 17:24:00,
2013-02-05 12:25:00,36.5,-99.9,-100.00,SSW,193,0.0,0.0,-999,0.00,,---,0.05,VWS V14.01,2013-02-05 17:25:00,
2013-02-05 12:29:00,36.3,-99.9,-100.00,SSW,193,0.0,0.0,-999,0.00,,---,0.05,VWS V14.01,2013-02-05 17:29:00,
2013-02-05 12:30:00,36.0,-99.9,-100.00,SSW,193,0.0,0.0,-999,0.00,,---,0.05,VWS V14.01,2013-02-05 17:30:00,
2013-02-05 12:34:00,37.5,-99.9,-100.00,SSW,193,0.0,0.0,-999,0.00,,---,0.05,VWS V14.01,2013-02-05 17:34:00,
2013-02-05 12:35:00,36.5,-99.9,-100.00,SSW,193,0.0,0.0,-999,0.00,,---,0.06,VWS V14.01,2013-02-05 17:35:00,
2013-02-05 12:39:00,35.0,-99.9,-100.00,SSW,193,0.0,0.0,-999,0.00,,---,0.06,VWS V14.01,2013-02-05 17:39:00,
2013-02-05 12:40:00,35.0,-99.9,-100.00,SSW,193,0.0,0.0,-999,0.00,,---,0.06,VWS V14.01,2013-02-05 17:40:00,
2013-02-05 12:44:00,37.0,-99.9,-100.00,SSW,193,0.0,0.0,-999,0.00,,---,0.06,VWS V14.01,2013-02-05 17:44:00,
2013-02-05 12:45:00,36.3,-99.9,-100.00,SSW,193,0.0,0.0,-999,0.00,,---,0.06,VWS V14.01,2013-02-05 17:45:00,
2013-02-05 12:49:00,34.6,-99.9,-100.00,SSW,193,0.0,0.0,-999,0.00,,---,0.06,VWS V14.01,2013-02-05 17:49:00,
2013-02-05 12:50:00,34.3,-99.9,-100.00,SSW,193,0.0,0.0,-999,0.00,,---,0.06,VWS V14.01,2013-02-05 17:50:00,
2013-02-05 12:54:00,35.5,-99.9,-100.00,SSW,193,0.0,0.0,-999,0.00,,---,0.06,VWS V14.01,2013-02-05 17:54:00,
2013-02-05 12:55:00,35.5,-99.9,-100.00,SSW,193,0.0,0.0,-999,0.00,,---,0.07,VWS V14.01,2013-02-05 17:55:00,
2013-02-05 12:59:00,37.3,-99.9,-100.00,SSW,193,0.0,0.0,-999,0.00,,---,0.07,VWS V14.01,2013-02-05 17:59:00,
2013-02-05 13:00:00,36.8,-99.9,-100.00,SSW,193,0.0,0.0,-999,0.00,,---,0.07,VWS V14.01,2013-02-05 18:00:00,
2013-02-05 13:04:00,36.9,-99.9,-100.00,SSW,193,0.0,0.0,-999,0.00,,---,0.07,VWS V14.01,2013-02-05 18:04:00,
2013-02-05 13:05:00,37.5,-99.9,-100.00,SSW,193,0.0,0.0,-999,0.00,,---,0.07,VWS V14.01,2013-02-05 18:05:00,
2013-02-05 13:09:00,38.3,-99.9,-100.00,SSW,193,0.0,0.0,-999,0.00,,---,0.07,VWS V14.01,2013-02-05 18:09:00,
2013-02-05 13:10:00,37.7,-99.9,-100.00,SSW,193,0.0,0.0,-999,0.00,,---,0.07,VWS V14.01,2013-02-05 18:10:00,
2013-02-05 13:14:00,35.0,-99.9,-100.00,SSW,193,0.0,0.0,-999,0.00,,---,0.07,VWS V14.01,2013-02-05 18:14:00,
2013-02-05 13:15:00,34.8,-99.9,-100.00,SSW,193,0.0,0.0,-999,0.00,,---,0.07,VWS V14.01,2013-02-05 18:15:00,
2013-02-05 13:19:00,36.8,-99.9,-100.00,SSW,193,0.0,0.0,-999,0.00,,---,0.07,VWS V14.01,2013-02-05 18:19:00,
2013-02-05 13:20:00,35.5,-99.9,-100.00,SSW,193,0.0,0.0,-999,0.00,,---,0.07,VWS V14.01,2013-02-05 18:20:00,
2013-02-05 13:21:00,35.3,-99.9,-100.00,SSW,193,0.0,0.0,-999,0.00,,---,0.07,VWS V14.01,2013-02-05 18:21:00,
2013-02-05 13:24:00,35.7,-99.9,-100.00,SSW,193,0.0,0.0,-999,0.00,,---,0.08,VWS V14.01,2013-02-05 18:24:00,
2013-02-05 13:25:00,34.6,-99.9,-100.00,SSW,193,0.0,0.0,-999,0.00,,---,0.08,VWS V14.01,2013-02-05 18:25:00,
2013-02-05 13:26:00,34.6,-99.9,-100.00,SSW,193,0.0,0.0,-999,0.00,,---,0.08,VWS V14.01,2013-02-05 18:26:00,
2013-02-05 13:29:00,38.0,-99.9,-100.00,SSW,193,0.0,0.0,-999,0.00,,---,0.08,VWS V14.01,2013-02-05 18:29:00,
2013-02-05 13:30:00,36.5,-99.9,-100.00,SSW,193,0.0,0.0,-999,0.00,,---,0.08,VWS V14.01,2013-02-05 18:30:00,
2013-02-05 13:31:00,36.5,-99.9,-100.00,SSW,193,0.0,0.0,-999,0.00,,---,0.08,VWS V14.01,2013-02-05 18:31:00,
2013-02-05 13:35:00,36.0,-99.9,-100.00,SSW,193,0.0,0.0,-999,0.00,,---,0.08,VWS V14.01,2013-02-05 18:35:00,
2013-02-05 13:36:00,36.3,-99.9,-100.00,SSW,193,0.0,0.0,-999,0.00,,---,0.08,VWS V14.01,2013-02-05 18:36:00,
2013-02-05 13:40:00,42.1,-99.9,-100.00,SSW,193,0.0,0.0,-999,0.00,,---,0.08,VWS V14.01,2013-02-05 18:40:00,
2013-02-05 13:41:00,43.0,-99.9,-100.00,SSW,193,0.0,0.0,-999,0.00,,---,0.08,VWS V14.01,2013-02-05 18:41:00,
2013-02-05 13:45:00,41.3,-99.9,-100.00,SSW,193,0.0,0.0,-999,0.00,,---,0.08,VWS V14.01,2013-02-05 18:45:00,
2013-02-05 13:46:00,42.3,-99.9,-100.00,SSW,193,0.0,0.0,-999,0.00,,---,0.08,VWS V14.01,2013-02-05 18:46:00,
2013-02-05 13:50:00,42.0,-99.9,-100.00,SSW,193,0.0,0.0,-999,0.00,,---,0.09,VWS V14.01,2013-02-05 18:50:00,
2013-02-05 13:51:00,43.3,-99.9,-100.00,SSW,193,0.0,0.0,-999,0.00,,---,0.09,VWS V14.01,2013-02-05 18:51:00,
2013-02-05 13:55:00,37.3,-99.9,-100.00,SSW,193,0.0,0.0,-999,0.00,,---,0.09,VWS V14.01,2013-02-05 18:55:00,
2013-02-05 13:56:00,36.8,-99.9,-100.00,SSW,193,0.0,0.0,-999,0.00,,---,0.09,VWS V14.01,2013-02-05 18:56:00,
2013-02-05 14:00:00,36.8,-99.9,-100.00,SSW,193,0.0,0.0,-999,0.00,,---,0.09,VWS V14.01,2013-02-05 19:00:00,
2013-02-05 14:01:00,35.5,-99.9,-100.00,SSW,193,0.0,0.0,-999,0.00,,---,0.09,VWS V14.01,2013-02-05 19:01:00,
2013-02-05 14:02:00,36.3,-99.9,-100.00,SSW,193,0.0,0.0,-999,0.00,,---,0.09,VWS V14.01,2013-02-05 19:02:00,
2013-02-05 14:05:00,39.2,-99.9,-100.00,SSW,193,0.0,0.0,-999,0.00,,---,0.10,VWS V14.01,2013-02-05 19:05:00,
2013-02-05 14:06:00,39.5,-99.9,-100.00,SSW,193,0.0,0.0,-999,0.00,,---,0.10,VWS V14.01,2013-02-05 19:06:00,
2013-02-05 14:07:00,39.2,-99.9,-100.00,SSW,193,0.0,0.0,-999,0.00,,---,0.10,VWS V14.01,2013-02-05 19:07:00,
2013-02-05 14:10:00,38.5,-99.9,-100.00,SSW,193,0.0,0.0,-999,0.00,,---,0.10,VWS V14.01,2013-02-05 19:10:00,
2013-02-05 14:11:00,36.3,-99.9,-100.00,SSW,193,0.0,0.0,-999,0.00,,---,0.10,VWS V14.01,2013-02-05 19:11:00,
2013-02-05 14:12:00,37.8,-99.9,-100.00,SSW,193,0.0,0.0,-999,0.00,,---,0.10,VWS V14.01,2013-02-05 19:12:00,
2013-02-05 14:15:00,43.8,-99.9,-100.00,SSW,193,0.0,0.0,-999,0.00,,---,0.10,VWS V14.01,2013-02-05 19:15:00,
2013-02-05 14:16:00,44.6,-99.9,-100.00,SSW,193,0.0,0.0,-999,0.00,,---,0.10,VWS V14.01,2013-02-05 19:16:00,
2013-02-05 14:17:00,45.8,-99.9,-100.00,SSW,193,0.0,0.0,-999,0.00,,---,0.10,VWS V14.01,2013-02-05 19:17:00,
2013-02-05 14:20:00,41.0,-99.9,-100.00,SSW,193,0.0,0.0,-999,0.00,,---,0.10,VWS V14.01,2013-02-05 19:20:00,
2013-02-05 14:21:00,40.0,-99.9,-100.00,SSW,193,0.0,0.0,-999,0.00,,---,0.10,VWS V14.01,2013-02-05 19:21:00,
2013-02-05 14:22:00,38.2,-99.9,-100.00,SSW,193,0.0,0.0,-999,0.00,,---,0.10,VWS V14.01,2013-02-05 19:22:00,
2013-02-05 14:25:00,41.9,-99.9,-100.00,SSW,193,0.0,0.0,-999,0.00,,---,0.10,VWS V14.01,2013-02-05 19:25:00,
2013-02-05 14:26:00,42.2,-99.9,-100.00,SSW,193,0.0,0.0,-999,0.00,,---,0.10,VWS V14.01,2013-02-05 19:26:00,
2013-02-05 14:27:00,42.3,-99.9,-100.00,SSW,193,0.0,0.0,-999,0.00,,---,0.10,VWS V14.01,2013-02-05 19:27:00,
2013-02-05 14:30:00,39.7,-99.9,-100.00,SSW,193,0.0,0.0,-999,0.00,,---,0.10,VWS V14.01,2013-02-05 19:30:00,
2013-02-05 14:31:00,38.7,-99.9,-100.00,SSW,193,0.0,0.0,-999,0.00,,---,0.10,VWS V14.01,2013-02-05 19:31:00,
2013-02-05 14:32:00,37.8,-99.9,-100.00,SSW,193,0.0,0.0,-999,0.00,,---,0.10,VWS V14.01,2013-02-05 19:32:00,
2013-02-05 14:35:00,33.8,-99.9,-100.00,SW,215,3.4,5.7,-999,0.00,,---,0.11,VWS V14.01,2013-02-05 19:35:00,
2013-02-05 14:36:00,36.0,-99.9,-100.00,SW,215,0.0,0.0,-999,0.00,,---,0.11,VWS V14.01,2013-02-05 19:36:00,
2013-02-05 14:37:00,37.0,-99.9,-100.00,SW,215,0.0,0.0,-999,0.00,,---,0.11,VWS V14.01,2013-02-05 19:37:00,
2013-02-05 14:40:00,36.5,-99.9,-100.00,SW,215,0.0,0.0,-999,0.00,,---,0.11,VWS V14.01,2013-02-05 19:40:00,
2013-02-05 14:41:00,37.3,-99.9,-100.00,SW,215,0.0,0.0,-999,0.00,,---,0.11,VWS V14.01,2013-02-05 19:41:00,
2013-02-05 14:42:00,37.0,-99.9,-100.00,SW,215,0.0,0.0,-999,0.00,,---,0.11,VWS V14.01,2013-02-05 19:42:00,
2013-02-05 14:45:00,34.8,-99.9,-100.00,WSW,249,0.0,3.5,-999,0.00,,---,0.11,VWS V14.01,2013-02-05 19:45:00,
2013-02-05 14:47:00,34.8,-99.9,-100.00,WSW,249,0.0,0.0,-999,0.00,,---,0.11,VWS V14.01,2013-02-05 19:47:00,
2013-02-05 14:48:00,34.6,-99.9,-100.00,South,179,4.4,4.4,-999,0.00,,---,0.11,VWS V14.01,2013-02-05 19:48:00,
2013-02-05 14:51:00,33.0,-99.9,-100.00,South,181,0.0,0.0,-999,0.00,,---,0.11,VWS V14.01,2013-02-05 19:51:00,
2013-02-05 14:52:00,33.0,-99.9,-100.00,SSE,159,5.4,5.5,-999,0.00,,---,0.11,VWS V14.01,2013-02-05 19:52:00,
2013-02-05 14:53:00,32.3,-99.9,-100.00,South,170,4.7,5.3,-999,0.00,,---,0.11,VWS V14.01,2013-02-05 19:53:00,
2013-02-05 14:56:00,31.7,-99.9,-100.00,SSE,150,0.0,0.0,-999,0.00,,---,0.11,VWS V14.01,2013-02-05 19:56:00,
2013-02-05 14:57:00,31.5,-99.9,-100.00,SSE,150,0.0,0.0,-999,0.00,,---,0.11,VWS V14.01,2013-02-05 19:57:00,
2013-02-05 14:58:00,31.7,-99.9,-100.00,SSE,150,0.0,0.0,-999,0.00,,---,0.11,VWS V14.01,2013-02-05 19:58:00,
2013-02-05 15:01:00,29.7,-99.9,-100.00,SSE,150,0.0,0.0,-999,0.00,,---,0.11,VWS V14.01,2013-02-05 20:01:00,
2013-02-05 15:02:00,29.0,-99.9,-100.00,West,260,4.8,5.3,-999,0.00,,---,0.11,VWS V14.01,2013-02-05 20:02:00,
2013-02-05 15:03:00,29.5,-99.9,-100.00,SW,228,0.0,0.0,-999,0.00,,---,0.11,VWS V14.01,2013-02-05 20:03:00,
2013-02-05 15:06:00,28.5,-99.9,-100.00,SSW,198,0.0,0.0,-999,0.00,,---,0.11,VWS V14.01,2013-02-05 20:06:00,
2013-02-05 15:07:00,29.0,-99.9,-100.00,SSW,198,0.0,0.0,-999,0.00,,---,0.11,VWS V14.01,2013-02-05 20:07:00,
2013-02-05 15:08:00,29.7,-99.9,-100.00,SSW,198,0.0,0.0,-999,0.00,,---,0.11,VWS V14.01,2013-02-05 20:08:00,
2013-02-05 15:11:00,31.7,-99.9,-100.00,SW,225,3.4,3.4,-999,0.00,,---,0.11,VWS V14.01,2013-02-05 20:11:00,
2013-02-05 15:12:00,31.3,-99.9,-100.00,SW,229,3.2,5.3,-999,0.00,,---,0.11,VWS V14.01,2013-02-05 20:12:00,
2013-02-05 15:13:00,31.0,-99.9,-100.00,SW,217,5.4,6.3,-999,0.00,,---,0.11,VWS V14.01,2013-02-05 20:13:00,
2013-02-05 15:16:00,31.3,-99.9,-100.00,SW,226,5.0,5.0,-999,0.00,,---,0.11,VWS V14.01,2013-02-05 20:16:00,
2013-02-05 15:17:00,31.3,-99.9,-100.00,SSW,210,0.0,6.0,-999,0.00,,---,0.11,VWS V14.01,2013-02-05 20:17:00,
2013-02-05 15:18:00,31.7,-99.9,-100.00,SSW,210,0.0,0.0,-999,0.00,,---,0.11,VWS V14.01,2013-02-05 20:18:00,
2013-02-05 15:21:00,30.0,-99.9,-100.00,SW,229,4.3,7.5,-999,0.00,,---,0.11,VWS V14.01,2013-02-05 20:21:00,
2013-02-05 15:23:00,30.3,-99.9,-100.00,SW,235,0.0,3.2,-999,0.00,,---,0.11,VWS V14.01,2013-02-05 20:23:00,
2013-02-05 15:27:00,30.2,-99.9,-100.00,SSW,202,0.0,0.0,-999,0.00,,---,0.11,VWS V14.01,2013-02-05 20:27:00,
2013-02-05 15:28:00,31.1,-99.9,-100.00,SW,232,4.7,7.0,-999,0.00,,---,0.11,VWS V14.01,2013-02-05 20:28:00,
2013-02-05 15:32:00,30.3,-99.9,-100.00,SW,231,5.2,6.8,-999,0.00,,---,0.11,VWS V14.01,2013-02-05 20:32:00,
2013-02-05 15:33:00,30.2,-99.9,-100.00,WSW,250,5.2,7.6,-999,0.00,,---,0.11,VWS V14.01,2013-02-05 20:33:00,
2013-02-05 15:37:00,31.2,-99.9,-100.00,SSW,204,4.3,6.3,-999,0.00,,---,0.11,VWS V14.01,2013-02-05 20:37:00,
2013-02-05 15:38:00,31.5,-99.9,-100.00,SW,218,0.0,0.0,-999,0.00,,---,0.11,VWS V14.01,2013-02-05 20:38:00,
2013-02-05 15:39:00,31.7,-99.9,-100.00,SW,218,3.2,3.2,-999,0.00,,---,0.11,VWS V14.01,2013-02-05 20:39:00,
2013-02-05 15:42:00,31.3,-99.9,-100.00,WSW,256,4.3,7.6,-999,0.00,,---,0.11,VWS V14.01,2013-02-05 20:42:00,
2013-02-05 15:43:00,31.3,-99.9,-100.00,SW,226,4.9,4.9,-999,0.00,,---,0.11,VWS V14.01,2013-02-05 20:43:00,
2013-02-05 15:44:00,29.7,-99.9,-100.00,SSW,200,5.6,6.6,-999,0.00,,---,0.11,VWS V14.01,2013-02-05 20:44:00,
2013-02-05 15:47:00,29.3,-99.9,-100.00,SW,232,3.5,3.5,-999,0.00,,---,0.11,VWS V14.01,2013-02-05 20:47:00,
2013-02-05 15:48:00,29.5,-99.9,-100.00,WSW,253,5.3,7.0,-999,0.00,,---,0.11,VWS V14.01,2013-02-05 20:48:00,
2013-02-05 15:49:00,29.8,-99.9,-100.00,WSW,240,5.8,5.8,-999,0.00,,---,0.11,VWS V14.01,2013-02-05 20:49:00,
2013-02-05 15:52:00,31.2,-99.9,-100.00,SW,217,0.0,0.0,-999,0.00,,---,0.11,VWS V14.01,2013-02-05 20:52:00,
2013-02-05 15:53:00,31.5,-99.9,-100.00,SSW,202,5.3,5.3,-999,0.00,,---,0.11,VWS V14.01,2013-02-05 20:53:00,
2013-02-05 15:54:00,31.5,-99.9,-100.00,WSW,249,6.5,6.5,-999,0.00,,---,0.11,VWS V14.01,2013-02-05 20:54:00,
2013-02-05 15:57:00,29.7,-99.9,-100.00,South,190,0.0,4.8,-999,0.00,,---,0.11,VWS V14.01,2013-02-05 20:57:00,
2013-02-05 15:58:00,29.5,-99.9,-100.00,South,190,0.0,0.0,-999,0.00,,---,0.11,VWS V14.01,2013-02-05 20:58:00,
2013-02-05 15:59:00,30.0,-99.9,-100.00,South,190,0.0,0.0,-999,0.00,,---,0.11,VWS V14.01,2013-02-05 20:59:00,
2013-02-05 16:02:00,30.2,-99.9,-100.00,SSE,160,0.0,0.0,-999,0.00,,---,0.11,VWS V14.01,2013-02-05 21:02:00,
2013-02-05 16:04:00,30.7,-99.9,-100.00,SSE,160,0.0,0.0,-999,0.00,,---,0.11,VWS V14.01,2013-02-05 21:04:00,
2013-02-05 16:07:00,30.5,-99.9,-100.00,SW,235,0.0,0.0,-999,0.00,,---,0.11,VWS V14.01,2013-02-05 21:07:00,
2013-02-05 16:09:00,31.3,-99.9,-100.00,SW,235,0.0,0.0,-999,0.00,,---,0.11,VWS V14.01,2013-02-05 21:09:00,
2013-02-05 16:12:00,30.5,-99.9,-100.00,SW,235,0.0,0.0,-999,0.00,,---,0.11,VWS V14.01,2013-02-05 21:12:00,
2013-02-05 16:14:00,29.7,-99.9,-100.00,SW,235,0.0,0.0,-999,0.00,,---,0.11,VWS V14.01,2013-02-05 21:14:00,
2013-02-05 16:15:00,28.5,-99.9,-100.00,SW,235,0.0,0.0,-999,0.00,,---,0.11,VWS V14.01,2013-02-05 21:15:00,
2013-02-05 16:17:00,29.5,-99.9,-100.00,SW,235,0.0,0.0,-999,0.00,,---,0.11,VWS V14.01,2013-02-05 21:17:00,
2013-02-05 16:19:00,29.7,-99.9,-100.00,SW,235,0.0,0.0,-999,0.00,,---,0.11,VWS V14.01,2013-02-05 21:19:00,
2013-02-05 16:20:00,29.5,-99.9,-100.00,SW,235,0.0,0.0,-999,0.00,,---,0.11,VWS V14.01,2013-02-05 21:20:00,
2013-02-05 16:22:00,28.8,-99.9,-100.00,South,191,3.3,6.0,-999,0.00,,---,0.11,VWS V14.01,2013-02-05 21:22:00,
2013-02-05 16:24:00,29.2,-99.9,-100.00,SSE,149,0.0,0.0,-999,0.00,,---,0.11,VWS V14.01,2013-02-05 21:24:00,
2013-02-05 16:25:00,29.0,-99.9,-100.00,SE,139,2.2,2.9,-999,0.00,,---,0.11,VWS V14.01,2013-02-05 21:25:00,
2013-02-05 16:27:00,29.0,-99.9,-100.00,South,186,5.0,5.0,-999,0.00,,---,0.11,VWS V14.01,2013-02-05 21:27:00,
2013-02-05 16:29:00,28.8,-99.9,-100.00,SW,221,2.8,3.4,-999,0.00,,---,0.11,VWS V14.01,2013-02-05 21:29:00,
2013-02-05 16:30:00,28.5,-99.9,-100.00,SW,221,0.0,0.0,-999,0.00,,---,0.11,VWS V14.01,2013-02-05 21:30:00,
2013-02-05 16:32:00,28.8,-99.9,-100.00,SE,145,0.0,2.8,-999,0.00,,---,0.11,VWS V14.01,2013-02-05 21:32:00,
2013-02-05 16:34:00,28.2,-99.9,-100.00,South,186,4.5,5.8,-999,0.00,,---,0.11,VWS V14.01,2013-02-05 21:34:00,
2013-02-05 16:35:00,28.2,-99.9,-100.00,SSW,202,4.8,4.8,-999,0.00,,---,0.11,VWS V14.01,2013-02-05 21:35:00,
2013-02-05 16:37:00,27.5,-99.9,-100.00,South,187,0.0,0.0,-999,0.00,,---,0.11,VWS V14.01,2013-02-05 21:37:00,
2013-02-05 16:39:00,27.5,-99.9,-100.00,SSW,195,5.0,5.0,-999,0.00,,---,0.11,VWS V14.01,2013-02-05 21:39:00,
2013-02-05 16:40:00,26.9,-99.9,-100.00,SSW,207,4.2,4.2,-999,0.00,,---,0.11,VWS V14.01,2013-02-05 21:40:00,
2013-02-05 16:43:00,26.7,-99.9,-100.00,WSW,240,0.0,0.0,-999,0.00,,---,0.11,VWS V14.01,2013-02-05 21:43:00,
2013-02-05 16:44:00,26.4,-99.9,-100.00,SSW,201,3.3,5.8,-999,0.00,,---,0.11,VWS V14.01,2013-02-05 21:44:00,
2013-02-05 16:45:00,26.4,-99.9,-100.00,SSW,198,5.1,6.7,-999,0.00,,---,0.11,VWS V14.01,2013-02-05 21:45:00,
2013-02-05 16:48:00,26.0,-99.9,-100.00,South,179,3.3,4.8,-999,0.00,,---,0.11,VWS V14.01,2013-02-05 21:48:00,
2013-02-05 16:49:00,26.0,-99.9,-100.00,SSW,207,4.2,5.2,-999,0.00,,---,0.11,VWS V14.01,2013-02-05 21:49:00,
2013-02-05 16:50:00,26.0,-99.9,-100.00,SSW,198,0.0,4.3,-999,0.00,,---,0.11,VWS V14.01,2013-02-05 21:50:00,
2013-02-05 16:51:00,26.0,-99.9,-100.00,SSW,201,0.0,4.9,-999,0.00,,---,0.11,VWS V14.01,2013-02-05 21:51:00,
2013-02-05 16:53:00,26.4,-99.9,-100.00,SSW,207,5.6,5.9,-999,0.00,,---,0.11,VWS V14.01,2013-02-05 21:53:00,
2013-02-05 16:54:00,26.4,-99.9,-100.00,SSW,197,4.9,6.5,-999,0.00,,---,0.11,VWS V14.01,2013-02-05 21:54:00,
2013-02-05 16:55:00,26.2,-99.9,-100.00,SW,229,5.1,7.9,-999,0.00,,---,0.11,VWS V14.01,2013-02-05 21:55:00,
2013-02-05 16:56:00,26.4,-99.9,-100.00,SW,214,5.8,5.8,-999,0.00,,---,0.11,VWS V14.01,2013-02-05 21:56:00,
2013-02-05 16:58:00,26.7,-99.9,-100.00,SW,222,4.9,4.9,-999,0.00,,---,0.11,VWS V14.01,2013-02-05 21:58:00,
2013-02-05 16:59:00,26.4,-99.9,-100.00,South,183,3.3,3.5,-999,0.00,,---,0.11,VWS V14.01,2013-02-05 21:59:00,
2013-02-05 17:00:00,26.2,-99.9,-100.00,SSW,205,4.4,4.5,-999,0.00,,---,0.11,VWS V14.01,2013-02-05 22:00:00,
2013-02-05 17:01:00,26.0,-99.9,-100.00,South,188,0.0,3.0,-999,0.00,,---,0.11,VWS V14.01,2013-02-05 22:01:00,
2013-02-05 17:03:00,26.7,-99.9,-100.00,South,188,0.0,0.0,-999,0.00,,---,0.11,VWS V14.01,2013-02-05 22:03:00,
2013-02-05 17:04:00,26.9,-99.9,-100.00,South,188,0.0,0.0,-999,0.00,,---,0.11,VWS V14.01,2013-02-05 22:04:00,
2013-02-05 17:05:00,26.7,-99.9,-100.00,SW,226,0.0,3.0,-999,0.00,,---,0.11,VWS V14.01,2013-02-05 22:05:00,
2013-02-05 17:06:00,26.2,-99.9,-100.00,SSW,207,3.4,6.6,-999,0.00,,---,0.11,VWS V14.01,2013-02-05 22:06:00,
2013-02-05 17:08:00,26.4,-99.9,-100.00,SW,214,4.2,4.7,-999,0.00,,---,0.11,VWS V14.01,2013-02-05 22:08:00,
2013-02-05 17:09:00,26.2,-99.9,-100.00,SW,221,3.2,3.4,-999,0.00,,---,0.11,VWS V14.01,2013-02-05 22:09:00,
2013-02-05 17:10:00,26.4,-99.9,-100.00,SW,225,0.0,3.5,-999,0.00,,---,0.11,VWS V14.01,2013-02-05 22:10:00,
2013-02-05 17:11:00,26.2,-99.9,-100.00,SW,225,0.0,0.0,-999,0.00,,---,0.11,VWS V14.01,2013-02-05 22:11:00,
2013-02-05 17:14:00,26.0,-99.9,-100.00,SW,225,0.0,0.0,-999,0.00,,---,0.11,VWS V14.01,2013-02-05 22:14:00,
2013-02-05 17:15:00,26.0,-99.9,-100.00,SW,225,0.0,0.0,-999,0.00,,---,0.11,VWS V14.01,2013-02-05 22:15:00,
2013-02-05 17:16:00,26.2,-99.9,-100.00,SW,225,0.0,0.0,-999,0.00,,---,0.11,VWS V14.01,2013-02-05 22:16:00,
2013-02-05 17:19:00,26.2,-99.9,-100.00,SW,225,0.0,0.0,-999,0.00,,---,0.11,VWS V14.01,2013-02-05 22:19:00,
2013-02-05 17:20:00,26.0,-99.9,-100.00,SW,225,0.0,0.0,-999,0.00,,---,0.11,VWS V14.01,2013-02-05 22:20:00,
2013-02-05 17:22:00,26.4,-99.9,-100.00,SW,225,0.0,0.0,-999,0.00,,---,0.11,VWS V14.01,2013-02-05 22:22:00,
2013-02-05 17:24:00,26.2,-99.9,-100.00,SW,225,0.0,0.0,-999,0.00,,---,0.11,VWS V14.01,2013-02-05 22:24:00,
2013-02-05 17:25:00,26.2,-99.9,-100.00,SW,225,0.0,0.0,-999,0.00,,---,0.11,VWS V14.01,2013-02-05 22:25:00,
2013-02-05 17:27:00,26.2,-99.9,-100.00,SW,225,0.0,0.0,-999,0.00,,---,0.11,VWS V14.01,2013-02-05 22:27:00,
2013-02-05 17:29:00,26.2,-99.9,-100.00,SW,225,0.0,0.0,-999,0.00,,---,0.11,VWS V14.01,2013-02-05 22:29:00,
2013-02-05 17:30:00,26.4,-99.9,-100.00,SW,225,0.0,0.0,-999,0.00,,---,0.11,VWS V14.01,2013-02-05 22:30:00,
2013-02-05 17:31:00,26.2,-99.9,-100.00,SW,225,0.0,0.0,-999,0.00,,---,0.11,VWS V14.01,2013-02-05 22:31:00,
2013-02-05 17:32:00,26.2,-99.9,-100.00,SW,225,0.0,0.0,-999,0.00,,---,0.11,VWS V14.01,2013-02-05 22:32:00,
2013-02-05 17:34:00,26.0,-99.9,-100.00,SW,225,0.0,0.0,-999,0.00,,---,0.11,VWS V14.01,2013-02-05 22:34:00,
2013-02-05 17:35:00,26.0,-99.9,-100.00,SW,225,0.0,0.0,-999,0.00,,---,0.11,VWS V14.01,2013-02-05 22:35:00,
2013-02-05 17:36:00,26.2,-99.9,-100.00,SW,225,0.0,0.0,-999,0.00,,---,0.11,VWS V14.01,2013-02-05 22:36:00,
2013-02-05 17:37:00,26.2,-99.9,-100.00,SW,225,0.0,0.0,-999,0.00,,---,0.11,VWS V14.01,2013-02-05 22:37:00,
2013-02-05 17:39:00,26.0,-99.9,-100.00,SW,225,0.0,0.0,-999,0.00,,---,0.11,VWS V14.01,2013-02-05 22:39:00,
2013-02-05 17:40:00,25.4,-99.9,-100.00,SW,225,0.0,0.0,-999,0.00,,---,0.11,VWS V14.01,2013-02-05 22:40:00,
2013-02-05 17:41:00,25.7,-99.9,-100.00,SW,225,0.0,0.0,-999,0.00,,---,0.11,VWS V14.01,2013-02-05 22:41:00,
2013-02-05 17:42:00,25.4,-99.9,-100.00,SW,225,0.0,0.0,-999,0.00,,---,0.11,VWS V14.01,2013-02-05 22:42:00,
2013-02-05 17:44:00,24.7,-99.9,-100.00,SW,225,0.0,0.0,-999,0.00,,---,0.11,VWS V14.01,2013-02-05 22:44:00,
2013-02-05 17:45:00,24.7,-99.9,-100.00,SW,225,0.0,0.0,-999,0.00,,---,0.11,VWS V14.01,2013-02-05 22:45:00,
2013-02-05 17:46:00,24.4,-99.9,-100.00,SW,225,0.0,0.0,-999,0.00,,---,0.11,VWS V14.01,2013-02-05 22:46:00,
2013-02-05 17:48:00,24.2,-99.9,-100.00,SW,225,0.0,0.0,-999,0.00,,---,0.11,VWS V14.01,2013-02-05 22:48:00,
2013-02-05 17:49:00,24.4,-99.9,-100.00,SW,225,0.0,0.0,-999,0.00,,---,0.11,VWS V14.01,2013-02-05 22:49:00,
2013-02-05 17:50:00,23.9,-99.9,-100.00,SW,225,0.0,0.0,-999,0.00,,---,0.11,VWS V14.01,2013-02-05 22:50:00,
2013-02-05 17:51:00,24.4,-99.9,-100.00,SW,225,0.0,0.0,-999,0.00,,---,0.11,VWS V14.01,2013-02-05 22:51:00,
2013-02-05 17:53:00,24.2,-99.9,-100.00,SW,225,0.0,0.0,-999,0.00,,---,0.11,VWS V14.01,2013-02-05 22:53:00,
2013-02-05 17:54:00,23.4,-99.9,-100.00,SW,225,0.0,0.0,-999,0.00,,---,0.11,VWS V14.01,2013-02-05 22:54:00,
2013-02-05 17:55:00,22.9,-99.9,-100.00,SW,225,0.0,0.0,-999,0.00,,---,0.11,VWS V14.01,2013-02-05 22:55:00,
2013-02-05 17:56:00,22.9,-99.9,-100.00,SW,225,0.0,0.0,-999,0.00,,---,0.11,VWS V14.01,2013-02-05 22:56:00,
2013-02-05 17:58:00,22.9,-99.9,-100.00,SW,225,0.0,0.0,-999,0.00,,---,0.11,VWS V14.01,2013-02-05 22:58:00,
2013-02-05 17:59:00,22.6,-99.9,-100.00,SW,225,0.0,0.0,-999,0.00,,---,0.11,VWS V14.01,2013-02-05 22:59:00,
2013-02-05 18:00:00,22.6,-99.9,-100.00,SW,225,0.0,0.0,-999,0.00,,---,0.12,VWS V14.01,2013-02-05 23:00:00,
2013-02-05 18:01:00,22.9,-99.9,-100.00,SW,225,0.0,0.0,-999,0.00,,---,0.12,VWS V14.01,2013-02-05 23:01:00,
2013-02-05 18:03:00,22.9,-99.9,-100.00,SW,225,0.0,0.0,-999,0.00,,---,0.12,VWS V14.01,2013-02-05 23:03:00,
2013-02-05 18:04:00,22.6,-99.9,-100.00,SW,225,0.0,0.0,-999,0.00,,---,0.12,VWS V14.01,2013-02-05 23:04:00,
2013-02-05 18:05:00,22.6,-99.9,-100.00,SW,225,0.0,0.0,-999,0.00,,---,0.12,VWS V14.01,2013-02-05 23:05:00,
2013-02-05 18:06:00,22.9,-99.9,-100.00,SW,225,0.0,0.0,-999,0.00,,---,0.12,VWS V14.01,2013-02-05 23:06:00,
2013-02-05 18:09:00,22.9,-99.9,-100.00,SW,225,0.0,0.0,-999,0.00,,---,0.12,VWS V14.01,2013-02-05 23:09:00,
2013-02-05 18:10:00,23.4,-99.9,-100.00,SW,225,0.0,0.0,-999,0.00,,---,0.12,VWS V14.01,2013-02-05 23:10:00,
2013-02-05 18:12:00,23.1,-99.9,-100.00,SW,225,0.0,0.0,-999,0.00,,---,0.12,VWS V14.01,2013-02-05 23:12:00,
2013-02-05 18:14:00,23.4,-99.9,-100.00,SW,225,0.0,0.0,-999,0.00,,---,0.12,VWS V14.01,2013-02-05 23:14:00,
2013-02-05 18:15:00,24.2,-99.9,-100.00,SW,225,0.0,0.0,-999,0.00,,---,0.12,VWS V14.01,2013-02-05 23:15:00,
2013-02-05 18:17:00,24.2,-99.9,-100.00,SW,225,0.0,0.0,-999,0.00,,---,0.12,VWS V14.01,2013-02-05 23:17:00,
2013-02-05 18:19:00,24.4,-99.9,-100.00,SW,225,0.0,0.0,-999,0.00,,---,0.12,VWS V14.01,2013-02-05 23:19:00,
2013-02-05 18:20:00,24.4,-99.9,-100.00,SW,225,0.0,0.0,-999,0.00,,---,0.12,VWS V14.01,2013-02-05 23:20:00,
2013-02-05 18:22:00,24.2,-99.9,-100.00,SW,225,0.0,0.0,-999,0.00,,---,0.12,VWS V14.01,2013-02-05 23:22:00,
2013-02-05 18:24:00,24.7,-99.9,-100.00,SW,225,0.0,0.0,-999,0.00,,---,0.12,VWS V14.01,2013-02-05 23:24:00,
2013-02-05 18:25:00,24.9,-99.9,-100.00,SW,225,0.0,0.0,-999,0.00,,---,0.12,VWS V14.01,2013-02-05 23:25:00,
2013-02-05 18:27:00,24.9,-99.9,-100.00,SW,225,0.0,0.0,-999,0.00,,---,0.12,VWS V14.01,2013-02-05 23:27:00,
2013-02-05 18:29:00,24.7,-99.9,-100.00,SW,225,0.0,0.0,-999,0.00,,---,0.12,VWS V14.01,2013-02-05 23:29:00,
2013-02-05 18:30:00,24.9,-99.9,-100.00,SW,225,0.0,0.0,-999,0.00,,---,0.12,VWS V14.01,2013-02-05 23:30:00,
2013-02-05 18:32:00,24.7,-99.9,-100.00,SW,225,0.0,0.0,-999,0.00,,---,0.12,VWS V14.01,2013-02-05 23:32:00,
2013-02-05 18:34:00,24.9,-99.9,-100.00,SW,225,0.0,0.0,-999,0.00,,---,0.12,VWS V14.01,2013-02-05 23:34:00,
2013-02-05 18:35:00,24.7,-99.9,-100.00,SW,225,0.0,0.0,-999,0.00,,---,0.12,VWS V14.01,2013-02-05 23:35:00,
2013-02-05 18:36:00,24.9,-99.9,-100.00,SW,225,0.0,0.0,-999,0.00,,---,0.12,VWS V14.01,2013-02-05 23:36:00,
2013-02-05 18:37:00,24.7,-99.9,-100.00,SW,225,0.0,0.0,-999,0.00,,---,0.12,VWS V14.01,2013-02-05 23:37:00,
2013-02-05 18:39:00,25.2,-99.9,-100.00,SW,225,0.0,0.0,-999,0.00,,---,0.12,VWS V14.01,2013-02-05 23:39:00,
2013-02-05 18:40:00,24.9,-99.9,-100.00,SW,225,0.0,0.0,-999,0.00,,---,0.12,VWS V14.01,2013-02-05 23:40:00,
2013-02-05 18:41:00,24.9,-99.9,-100.00,SW,225,0.0,0.0,-999,0.00,,---,0.12,VWS V14.01,2013-02-05 23:41:00,
2013-02-05 18:42:00,25.2,-99.9,-100.00,SW,225,0.0,0.0,-999,0.00,,---,0.12,VWS V14.01,2013-02-05 23:42:00,
2013-02-05 18:44:00,24.9,-99.9,-100.00,SW,225,0.0,0.0,-999,0.00,,---,0.12,VWS V14.01,2013-02-05 23:44:00,
2013-02-05 18:45:00,25.2,-99.9,-100.00,SW,225,0.0,0.0,-999,0.00,,---,0.12,VWS V14.01,2013-02-05 23:45:00,
2013-02-05 18:46:00,25.2,-99.9,-100.00,SW,225,0.0,0.0,-999,0.00,,---,0.12,VWS V14.01,2013-02-05 23:46:00,
2013-02-05 18:47:00,25.2,-99.9,-100.00,SW,225,0.0,0.0,-999,0.00,,---,0.12,VWS V14.01,2013-02-05 23:47:00,
2013-02-05 18:49:00,25.4,-99.9,-100.00,SW,225,0.0,0.0,-999,0.00,,---,0.12,VWS V14.01,2013-02-05 23:49:00,
2013-02-05 18:50:00,25.2,-99.9,-100.00,SW,225,0.0,0.0,-999,0.00,,---,0.12,VWS V14.01,2013-02-05 23:50:00,
2013-02-05 18:51:00,25.4,-99.9,-100.00,SW,225,0.0,0.0,-999,0.00,,---,0.12,VWS V14.01,2013-02-05 23:51:00,
2013-02-05 18:52:00,25.7,-99.9,-100.00,SW,225,0.0,0.0,-999,0.00,,---,0.12,VWS V14.01,2013-02-05 23:52:00,
2013-02-05 18:54:00,25.2,-99.9,-100.00,SW,225,0.0,0.0,-999,0.00,,---,0.12,VWS V14.01,2013-02-05 23:54:00,
2013-02-05 18:56:00,25.2,-99.9,-100.00,SW,225,0.0,0.0,-999,0.00,,---,0.12,VWS V14.01,2013-02-05 23:56:00,
2013-02-05 18:57:00,25.7,-99.9,-100.00,SW,225,0.0,0.0,-999,0.00,,---,0.12,VWS V14.01,2013-02-05 23:57:00,
2013-02-05 18:59:00,25.4,-99.9,-100.00,SW,225,0.0,0.0,-999,0.00,,---,0.12,VWS V14.01,2013-02-05 23:59:00,
2013-02-05 19:01:00,25.2,-99.9,-100.00,SW,225,0.0,0.0,-999,0.00,,---,0.12,VWS V14.01,2013-02-06 00:01:00,
2013-02-05 19:02:00,25.7,-99.9,-100.00,SW,225,0.0,0.0,-999,0.00,,---,0.12,VWS V14.01,2013-02-06 00:02:00,
2013-02-05 19:05:00,25.4,-99.9,-100.00,SW,225,0.0,0.0,-999,0.00,,---,0.12,VWS V14.01,2013-02-06 00:05:00,
2013-02-05 19:06:00,26.0,-99.9,-100.00,SW,225,0.0,0.0,-999,0.00,,---,0.12,VWS V14.01,2013-02-06 00:06:00,
2013-02-05 19:08:00,25.2,-99.9,-100.00,SW,225,0.0,0.0,-999,0.00,,---,0.12,VWS V14.01,2013-02-06 00:08:00,
2013-02-05 19:10:00,25.4,-99.9,-100.00,SW,225,0.0,0.0,-999,0.00,,---,0.12,VWS V14.01,2013-02-06 00:10:00,
2013-02-05 19:11:00,25.4,-99.9,-100.00,SW,225,0.0,0.0,-999,0.00,,---,0.12,VWS V14.01,2013-02-06 00:11:00,
2013-02-05 19:13:00,25.4,-99.9,-100.00,SW,225,0.0,0.0,-999,0.00,,---,0.12,VWS V14.01,2013-02-06 00:13:00,
2013-02-05 19:15:00,26.0,-99.9,-100.00,SW,225,0.0,0.0,-999,0.00,,---,0.12,VWS V14.01,2013-02-06 00:15:00,
2013-02-05 19:16:00,25.7,-99.9,-100.00,SW,225,0.0,0.0,-999,0.00,,---,0.12,VWS V14.01,2013-02-06 00:16:00,
2013-02-05 19:18:00,26.0,-99.9,-100.00,SW,225,0.0,0.0,-999,0.00,,---,0.12,VWS V14.01,2013-02-06 00:18:00,
2013-02-05 19:20:00,25.4,-99.9,-100.00,SW,225,0.0,0.0,-999,0.00,,---,0.12,VWS V14.01,2013-02-06 00:20:00,
2013-02-05 19:21:00,26.0,-99.9,-100.00,SW,225,0.0,0.0,-999,0.00,,---,0.12,VWS V14.01,2013-02-06 00:21:00,
2013-02-05 19:22:00,25.7,-99.9,-100.00,SW,225,0.0,0.0,-999,0.00,,---,0.12,VWS V14.01,2013-02-06 00:22:00,
2013-02-05 19:23:00,26.0,-99.9,-100.00,SW,225,0.0,0.0,-999,0.00,,---,0.12,VWS V14.01,2013-02-06 00:23:00,
2013-02-05 19:25:00,26.2,-99.9,-100.00,South,179,4.9,6.6,-999,0.00,,---,0.12,VWS V14.01,2013-02-06 00:25:00,
2013-02-05 19:26:00,26.0,-99.9,-100.00,South,187,4.1,4.3,-999,0.00,,---,0.12,VWS V14.01,2013-02-06 00:26:00,
2013-02-05 19:27:00,26.2,-99.9,-100.00,South,191,4.2,4.7,-999,0.00,,---,0.12,VWS V14.01,2013-02-06 00:27:00,
2013-02-05 19:28:00,26.2,-99.9,-100.00,South,186,4.2,5.7,-999,0.00,,---,0.12,VWS V14.01,2013-02-06 00:28:00,
2013-02-05 19:30:00,26.0,-99.9,-100.00,SSW,198,0.0,0.0,-999,0.00,,---,0.12,VWS V14.01,2013-02-06 00:30:00,
2013-02-05 19:31:00,25.7,-99.9,-100.00,SSW,198,0.0,0.0,-999,0.00,,---,0.12,VWS V14.01,2013-02-06 00:31:00,
2013-02-05 19:32:00,26.0,-99.9,-100.00,SSW,198,0.0,0.0,-999,0.00,,---,0.12,VWS V14.01,2013-02-06 00:32:00,
2013-02-05 19:33:00,26.0,-99.9,-100.00,SSW,198,0.0,0.0,-999,0.00,,---,0.12,VWS V14.01,2013-02-06 00:33:00,
2013-02-05 19:35:00,26.0,-99.9,-100.00,SSW,198,0.0,0.0,-999,0.00,,---,0.12,VWS V14.01,2013-02-06 00:35:00,
2013-02-05 19:36:00,25.7,-99.9,-100.00,SSW,198,0.0,0.0,-999,0.00,,---,0.12,VWS V14.01,2013-02-06 00:36:00,
2013-02-05 19:37:00,26.2,-99.9,-100.00,SSW,198,0.0,0.0,-999,0.00,,---,0.12,VWS V14.01,2013-02-06 00:37:00,
2013-02-05 19:38:00,26.0,-99.9,-100.00,SSW,198,0.0,0.0,-999,0.00,,---,0.12,VWS V14.01,2013-02-06 00:38:00,
2013-02-05 19:40:00,25.7,-99.9,-100.00,South,172,4.2,6.3,-999,0.00,,---,0.12,VWS V14.01,2013-02-06 00:40:00,
2013-02-05 19:41:00,25.7,-99.9,-100.00,SSW,212,3.2,4.2,-999,0.00,,---,0.12,VWS V14.01,2013-02-06 00:41:00,
2013-02-05 19:42:00,25.7,-99.9,-100.00,SW,232,0.0,3.0,-999,0.00,,---,0.12,VWS V14.01,2013-02-06 00:42:00,
2013-02-05 19:43:00,26.0,-99.9,-100.00,SW,232,0.0,0.0,-999,0.00,,---,0.12,VWS V14.01,2013-02-06 00:43:00,
2013-02-05 19:45:00,25.7,-99.9,-100.00,SW,232,0.0,0.0,-999,0.00,,---,0.12,VWS V14.01,2013-02-06 00:45:00,
2013-02-05 19:46:00,25.7,-99.9,-100.00,SW,232,0.0,0.0,-999,0.00,,---,0.12,VWS V14.01,2013-02-06 00:46:00,
2013-02-05 19:47:00,26.2,-99.9,-100.00,SW,232,0.0,0.0,-999,0.00,,---,0.12,VWS V14.01,2013-02-06 00:47:00,
2013-02-05 19:49:00,25.7,-99.9,-100.00,South,181,0.0,0.0,-999,0.00,,---,0.12,VWS V14.01,2013-02-06 00:49:00,
2013-02-05 19:50:00,25.7,-99.9,-100.00,South,181,0.0,0.0,-999,0.00,,---,0.12,VWS V14.01,2013-02-06 00:50:00,
2013-02-05 19:51:00,26.2,-99.9,-100.00,SW,229,5.2,5.2,-999,0.00,,---,0.12,VWS V14.01,2013-02-06 00:51:00,
2013-02-05 19:52:00,26.0,-99.9,-100.00,SW,236,0.0,4.8,-999,0.00,,---,0.12,VWS V14.01,2013-02-06 00:52:00,
2013-02-05 19:54:00,26.0,-99.9,-100.00,SW,218,0.0,0.0,-999,0.00,,---,0.12,VWS V14.01,2013-02-06 00:54:00,
2013-02-05 19:56:00,26.2,-99.9,-100.00,SW,218,0.0,0.0,-999,0.00,,---,0.12,VWS V14.01,2013-02-06 00:56:00,
2013-02-05 19:57:00,26.0,-99.9,-100.00,SW,218,0.0,0.0,-999,0.00,,---,0.12,VWS V14.01,2013-02-06 00:57:00,
2013-02-05 19:59:00,26.2,-99.9,-100.00,SW,218,0.0,0.0,-999,0.00,,---,0.12,VWS V14.01,2013-02-06 00:59:00,
2013-02-05 20:01:00,25.4,-99.9,-100.00,SW,218,0.0,0.0,-999,0.00,,---,0.12,VWS V14.01,2013-02-06 01:01:00,
2013-02-05 20:02:00,26.2,-99.9,-100.00,SW,218,0.0,0.0,-999,0.00,,---,0.12,VWS V14.01,2013-02-06 01:02:00,
2013-02-05 20:04:00,26.0,-99.9,-100.00,SW,218,0.0,0.0,-999,0.00,,---,0.12,VWS V14.01,2013-02-06 01:04:00,
2013-02-05 20:06:00,26.0,-99.9,-100.00,SW,218,0.0,0.0,-999,0.00,,---,0.12,VWS V14.01,2013-02-06 01:06:00,
2013-02-05 20:07:00,25.7,-99.9,-100.00,SW,218,0.0,0.0,-999,0.00,,---,0.12,VWS V14.01,2013-02-06 01:07:00,
2013-02-05 20:09:00,26.0,-99.9,-100.00,SW,218,0.0,0.0,-999,0.00,,---,0.12,VWS V14.01,2013-02-06 01:09:00,
2013-02-05 20:11:00,25.7,-99.9,-100.00,SW,218,0.0,0.0,-999,0.00,,---,0.12,VWS V14.01,2013-02-06 01:11:00,
2013-02-05 20:12:00,26.0,-99.9,-100.00,SW,218,0.0,0.0,-999,0.00,,---,0.12,VWS V14.01,2013-02-06 01:12:00,
2013-02-05 20:14:00,25.4,-99.9,-100.00,SW,218,0.0,0.0,-999,0.00,,---,0.12,VWS V14.01,2013-02-06 01:14:00,
2013-02-05 20:16:00,25.4,-99.9,-100.00,SW,218,0.0,0.0,-999,0.00,,---,0.12,VWS V14.01,2013-02-06 01:16:00,
2013-02-05 20:17:00,25.7,-99.9,-100.00,SW,218,0.0,0.0,-999,0.00,,---,0.12,VWS V14.01,2013-02-06 01:17:00,
2013-02-05 20:19:00,26.0,-99.9,-100.00,SW,218,0.0,0.0,-999,0.00,,---,0.12,VWS V14.01,2013-02-06 01:19:00,
2013-02-05 20:21:00,26.0,-99.9,-100.00,SW,218,0.0,0.0,-999,0.00,,---,0.12,VWS V14.01,2013-02-06 01:21:00,
2013-02-05 20:22:00,25.4,-99.9,-100.00,SW,218,0.0,0.0,-999,0.00,,---,0.12,VWS V14.01,2013-02-06 01:22:00,
2013-02-05 20:24:00,26.0,-99.9,-100.00,SW,218,0.0,0.0,-999,0.00,,---,0.12,VWS V14.01,2013-02-06 01:24:00,
2013-02-05 20:26:00,25.7,-99.9,-100.00,SW,218,0.0,0.0,-999,0.00,,---,0.12,VWS V14.01,2013-02-06 01:26:00,
2013-02-05 20:27:00,26.2,-99.9,-100.00,SW,218,0.0,0.0,-999,0.00,,---,0.12,VWS V14.01,2013-02-06 01:27:00,
2013-02-05 20:28:00,25.7,-99.9,-100.00,SW,218,0.0,0.0,-999,0.00,,---,0.12,VWS V14.01,2013-02-06 01:28:00,
2013-02-05 20:29:00,25.7,-99.9,-100.00,SW,218,0.0,0.0,-999,0.00,,---,0.12,VWS V14.01,2013-02-06 01:29:00,
2013-02-05 20:31:00,25.4,-99.9,-100.00,SW,218,0.0,0.0,-999,0.00,,---,0.12,VWS V14.01,2013-02-06 01:31:00,
2013-02-05 20:32:00,26.4,-99.9,-100.00,SW,218,0.0,0.0,-999,0.00,,---,0.12,VWS V14.01,2013-02-06 01:32:00,
2013-02-05 20:33:00,26.0,-99.9,-100.00,SW,218,0.0,0.0,-999,0.00,,---,0.12,VWS V14.01,2013-02-06 01:33:00,
2013-02-05 20:34:00,26.0,-99.9,-100.00,SW,218,0.0,0.0,-999,0.00,,---,0.12,VWS V14.01,2013-02-06 01:34:00,
2013-02-05 20:36:00,26.0,-99.9,-100.00,SW,218,0.0,0.0,-999,0.00,,---,0.12,VWS V14.01,2013-02-06 01:36:00,
2013-02-05 20:37:00,26.0,-99.9,-100.00,WSW,238,6.2,6.2,-999,0.00,,---,0.12,VWS V14.01,2013-02-06 01:37:00,
2013-02-05 20:38:00,25.7,-99.9,-100.00,SW,231,5.5,5.5,-999,0.00,,---,0.12,VWS V14.01,2013-02-06 01:38:00,
2013-02-05 20:39:00,26.4,-99.9,-100.00,WSW,252,5.8,7.6,-999,0.00,,---,0.12,VWS V14.01,2013-02-06 01:39:00,
2013-02-05 20:41:00,26.0,-99.9,-100.00,WSW,239,5.7,6.7,-999,0.00,,---,0.12,VWS V14.01,2013-02-06 01:41:00,
2013-02-05 20:42:00,26.2,-99.9,-100.00,SW,215,4.2,5.7,-999,0.00,,---,0.12,VWS V14.01,2013-02-06 01:42:00,
2013-02-05 20:43:00,26.2,-99.9,-100.00,WSW,242,5.0,5.8,-999,0.00,,---,0.12,VWS V14.01,2013-02-06 01:43:00,
2013-02-05 20:44:00,26.2,-99.9,-100.00,WSW,256,5.7,6.3,-999,0.00,,---,0.12,VWS V14.01,2013-02-06 01:44:00,
2013-02-05 20:47:00,26.0,-99.9,-100.00,WSW,256,4.3,4.6,-999,0.00,,---,0.12,VWS V14.01,2013-02-06 01:47:00,
2013-02-05 20:48:00,26.2,-99.9,-100.00,WSW,248,0.0,2.9,-999,0.00,,---,0.12,VWS V14.01,2013-02-06 01:48:00,
2013-02-05 20:49:00,26.4,-99.9,-100.00,WSW,248,0.0,0.0,-999,0.00,,---,0.12,VWS V14.01,2013-02-06 01:49:00,
2013-02-05 20:52:00,26.2,-99.9,-100.00,SW,217,4.2,4.2,-999,0.00,,---,0.12,VWS V14.01,2013-02-06 01:52:00,
2013-02-05 20:53:00,26.2,-99.9,-100.00,South,188,2.9,3.4,-999,0.00,,---,0.12,VWS V14.01,2013-02-06 01:53:00,
2013-02-05 20:54:00,26.2,-99.9,-100.00,South,188,0.0,0.0,-999,0.00,,---,0.12,VWS V14.01,2013-02-06 01:54:00,
2013-02-05 20:57:00,25.4,-99.9,-100.00,South,188,0.0,0.0,-999,0.00,,---,0.12,VWS V14.01,2013-02-06 01:57:00,
2013-02-05 20:58:00,26.2,-99.9,-100.00,South,188,0.0,0.0,-999,0.00,,---,0.12,VWS V14.01,2013-02-06 01:58:00,
2013-02-05 21:00:00,26.0,-99.9,-100.00,South,188,0.0,0.0,-999,0.00,,---,0.12,VWS V14.01,2013-02-06 02:00:00,
2013-02-05 21:02:00,26.2,-99.9,-100.00,South,188,0.0,0.0,-999,0.00,,---,0.12,VWS V14.01,2013-02-06 02:02:00,
2013-02-05 21:03:00,26.0,-99.9,-100.00,South,188,0.0,0.0,-999,0.00,,---,0.12,VWS V14.01,2013-02-06 02:03:00,
2013-02-05 21:05:00,26.0,-99.9,-100.00,South,188,0.0,0.0,-999,0.00,,---,0.12,VWS V14.01,2013-02-06 02:05:00,
2013-02-05 21:07:00,26.2,-99.9,-100.00,South,188,0.0,0.0,-999,0.00,,---,0.12,VWS V14.01,2013-02-06 02:07:00,
2013-02-05 21:08:00,26.0,-99.9,-100.00,South,188,0.0,0.0,-999,0.00,,---,0.12,VWS V14.01,2013-02-06 02:08:00,
2013-02-05 21:10:00,26.2,-99.9,-100.00,South,188,0.0,0.0,-999,0.00,,---,0.12,VWS V14.01,2013-02-06 02:10:00,
2013-02-05 21:12:00,26.0,-99.9,-100.00,South,188,0.0,0.0,-999,0.00,,---,0.12,VWS V14.01,2013-02-06 02:12:00,
2013-02-05 21:14:00,26.0,-99.9,-100.00,South,188,0.0,0.0,-999,0.00,,---,0.12,VWS V14.01,2013-02-06 02:14:00,
2013-02-05 21:15:00,25.7,-99.9,-100.00,South,188,0.0,0.0,-999,0.00,,---,0.12,VWS V14.01,2013-02-06 02:15:00,
2013-02-05 21:17:00,25.7,-99.9,-100.00,South,188,0.0,0.0,-999,0.00,,---,0.12,VWS V14.01,2013-02-06 02:17:00,
2013-02-05 21:19:00,25.7,-99.9,-100.00,South,188,0.0,0.0,-999,0.00,,---,0.12,VWS V14.01,2013-02-06 02:19:00,
2013-02-05 21:21:00,25.4,-99.9,-100.00,South,188,0.0,0.0,-999,0.00,,---,0.12,VWS V14.01,2013-02-06 02:21:00,
2013-02-05 21:22:00,26.0,-99.9,-100.00,South,188,0.0,0.0,-999,0.00,,---,0.12,VWS V14.01,2013-02-06 02:22:00,
2013-02-05 21:24:00,25.7,-99.9,-100.00,South,188,0.0,0.0,-999,0.00,,---,0.12,VWS V14.01,2013-02-06 02:24:00,
2013-02-05 21:26:00,25.7,-99.9,-100.00,South,188,0.0,0.0,-999,0.00,,---,0.12,VWS V14.01,2013-02-06 02:26:00,
2013-02-05 21:27:00,25.7,-99.9,-100.00,South,188,0.0,0.0,-999,0.00,,---,0.12,VWS V14.01,2013-02-06 02:27:00,
2013-02-05 21:29:00,26.0,-99.9,-100.00,South,188,0.0,0.0,-999,0.00,,---,0.12,VWS V14.01,2013-02-06 02:29:00,
2013-02-05 21:31:00,25.7,-99.9,-100.00,South,188,0.0,0.0,-999,0.00,,---,0.12,VWS V14.01,2013-02-06 02:31:00,
2013-02-05 21:32:00,26.0,-99.9,-100.00,South,188,0.0,0.0,-999,0.00,,---,0.12,VWS V14.01,2013-02-06 02:32:00,
2013-02-05 21:34:00,25.7,-99.9,-100.00,WNW,290,0.0,4.3,-999,0.00,,---,0.12,VWS V14.01,2013-02-06 02:34:00,
2013-02-05 21:36:00,25.7,-99.9,-100.00,SW,218,5.0,5.7,-999,0.00,,---,0.12,VWS V14.01,2013-02-06 02:36:00,
2013-02-05 21:37:00,25.7,-99.9,-100.00,WSW,246,5.0,7.5,-999,0.00,,---,0.12,VWS V14.01,2013-02-06 02:37:00,
2013-02-05 21:39:00,26.0,-99.9,-100.00,WSW,250,6.3,6.8,-999,0.00,,---,0.12,VWS V14.01,2013-02-06 02:39:00,
2013-02-05 21:41:00,25.4,-99.9,-100.00,SW,235,3.2,6.1,-999,0.00,,---,0.12,VWS V14.01,2013-02-06 02:41:00,
2013-02-05 21:42:00,25.4,-99.9,-100.00,SW,218,0.0,5.0,-999,0.00,,---,0.12,VWS V14.01,2013-02-06 02:42:00,
2013-02-05 21:44:00,25.4,-99.9,-100.00,SSW,212,4.5,5.0,-999,0.00,,---,0.12,VWS V14.01,2013-02-06 02:44:00,
2013-02-05 21:46:00,25.2,-99.9,-100.00,SW,231,3.3,5.2,-999,0.00,,---,0.12,VWS V14.01,2013-02-06 02:46:00,
2013-02-05 21:47:00,25.2,-99.9,-100.00,SSW,211,0.0,6.5,-999,0.00,,---,0.12,VWS V14.01,2013-02-06 02:47:00,
2013-02-05 21:49:00,25.4,-99.9,-100.00,SSW,211,0.0,0.0,-999,0.00,,---,0.12,VWS V14.01,2013-02-06 02:49:00,
2013-02-05 21:51:00,25.7,-99.9,-100.00,SW,235,6.3,6.3,-999,0.00,,---,0.12,VWS V14.01,2013-02-06 02:51:00,
2013-02-05 21:52:00,25.4,-99.9,-100.00,South,191,3.2,7.3,-999,0.00,,---,0.12,VWS V14.01,2013-02-06 02:52:00,
2013-02-05 21:53:00,24.9,-99.9,-100.00,SW,226,6.0,7.7,-999,0.00,,---,0.12,VWS V14.01,2013-02-06 02:53:00,
2013-02-05 21:54:00,25.2,-99.9,-100.00,SW,236,5.2,6.6,-999,0.00,,---,0.12,VWS V14.01,2013-02-06 02:54:00,
2013-02-05 21:56:00,24.9,-99.9,-100.00,SW,224,6.3,6.3,-999,0.00,,---,0.12,VWS V14.01,2013-02-06 02:56:00,
2013-02-05 21:58:00,25.4,-99.9,-100.00,WSW,250,7.1,8.0,-999,0.00,,---,0.12,VWS V14.01,2013-02-06 02:58:00,
2013-02-05 21:59:00,24.7,-99.9,-100.00,WSW,239,6.0,6.3,-999,0.00,,---,0.12,VWS V14.01,2013-02-06 02:59:00,
2013-02-05 22:01:00,24.7,-99.9,-100.00,South,186,0.0,0.0,-999,0.00,,---,0.12,VWS V14.01,2013-02-06 03:01:00,
2013-02-05 22:03:00,25.2,-99.9,-100.00,South,186,0.0,0.0,-999,0.00,,---,0.12,VWS V14.01,2013-02-06 03:03:00,
2013-02-05 22:05:00,24.7,-99.9,-100.00,SW,229,6.5,6.5,-999,0.00,,---,0.12,VWS V14.01,2013-02-06 03:05:00,
2013-02-05 22:07:00,24.4,-99.9,-100.00,SW,224,0.0,0.0,-999,0.00,,---,0.12,VWS V14.01,2013-02-06 03:07:00,
2013-02-05 22:08:00,24.7,-99.9,-100.00,SW,224,0.0,0.0,-999,0.00,,---,0.12,VWS V14.01,2013-02-06 03:08:00,
2013-02-05 22:10:00,24.4,-99.9,-100.00,SW,224,0.0,0.0,-999,0.00,,---,0.12,VWS V14.01,2013-02-06 03:10:00,
2013-02-05 22:12:00,24.9,-99.9,-100.00,SW,224,0.0,0.0,-999,0.00,,---,0.12,VWS V14.01,2013-02-06 03:12:00,
2013-02-05 22:13:00,24.9,-99.9,-100.00,SW,224,6.0,7.0,-999,0.00,,---,0.12,VWS V14.01,2013-02-06 03:13:00,
2013-02-05 22:15:00,24.4,-99.9,-100.00,SW,224,0.0,0.0,-999,0.00,,---,0.12,VWS V14.01,2013-02-06 03:15:00,
2013-02-05 22:17:00,24.2,-99.9,-100.00,SW,224,0.0,0.0,-999,0.00,,---,0.12,VWS V14.01,2013-02-06 03:17:00,
2013-02-05 22:18:00,24.7,-99.9,-100.00,SW,224,0.0,0.0,-999,0.00,,---,0.12,VWS V14.01,2013-02-06 03:18:00,
2013-02-05 22:20:00,24.2,-99.9,-100.00,SW,224,0.0,0.0,-999,0.00,,---,0.12,VWS V14.01,2013-02-06 03:20:00,
2013-02-05 22:22:00,24.9,-99.9,-100.00,SW,224,0.0,0.0,-999,0.00,,---,0.12,VWS V14.01,2013-02-06 03:22:00,
2013-02-05 22:23:00,24.4,-99.9,-100.00,SW,224,0.0,0.0,-999,0.00,,---,0.12,VWS V14.01,2013-02-06 03:23:00,
2013-02-05 22:25:00,24.4,-99.9,-100.00,SW,224,0.0,0.0,-999,0.00,,---,0.12,VWS V14.01,2013-02-06 03:25:00,
2013-02-05 22:27:00,24.2,-99.9,-100.00,SW,224,0.0,0.0,-999,0.00,,---,0.12,VWS V14.01,2013-02-06 03:27:00,
2013-02-05 22:28:00,24.2,-99.9,-100.00,SW,215,0.0,3.4,-999,0.00,,---,0.12,VWS V14.01,2013-02-06 03:28:00,
2013-02-05 22:30:00,24.7,-99.9,-100.00,SW,215,0.0,0.0,-999,0.00,,---,0.12,VWS V14.01,2013-02-06 03:30:00,
2013-02-05 22:32:00,24.2,-99.9,-100.00,SW,215,0.0,0.0,-999,0.00,,---,0.12,VWS V14.01,2013-02-06 03:32:00,
2013-02-05 22:33:00,23.9,-99.9,-100.00,SW,215,0.0,0.0,-999,0.00,,---,0.12,VWS V14.01,2013-02-06 03:33:00,
2013-02-05 22:35:00,23.9,-99.9,-100.00,SW,215,0.0,0.0,-999,0.00,,---,0.12,VWS V14.01,2013-02-06 03:35:00,
2013-02-05 22:37:00,24.2,-99.9,-100.00,SW,215,0.0,0.0,-999,0.00,,---,0.12,VWS V14.01,2013-02-06 03:37:00,
2013-02-05 22:38:00,24.4,-99.9,-100.00,SW,215,0.0,0.0,-999,0.00,,---,0.12,VWS V14.01,2013-02-06 03:38:00,
2013-02-05 22:40:00,23.9,-99.9,-100.00,SW,215,0.0,0.0,-999,0.00,,---,0.12,VWS V14.01,2013-02-06 03:40:00,
2013-02-05 22:42:00,24.2,-99.9,-100.00,SW,215,0.0,0.0,-999,0.00,,---,0.12,VWS V14.01,2013-02-06 03:42:00,
2013-02-05 22:43:00,23.7,-99.9,-100.00,SW,215,0.0,0.0,-999,0.00,,---,0.12,VWS V14.01,2013-02-06 03:43:00,
2013-02-05 22:45:00,23.7,-99.9,-100.00,SW,215,0.0,0.0,-999,0.00,,---,0.12,VWS V14.01,2013-02-06 03:45:00,
2013-02-05 22:47:00,24.2,-99.9,-100.00,SW,221,0.0,0.0,-999,0.00,,---,0.12,VWS V14.01,2013-02-06 03:47:00,
2013-02-05 22:48:00,23.9,-99.9,-100.00,SW,221,0.0,0.0,-999,0.00,,---,0.12,VWS V14.01,2013-02-06 03:48:00,
2013-02-05 22:51:00,23.7,-99.9,-100.00,SW,221,0.0,0.0,-999,0.00,,---,0.12,VWS V14.01,2013-02-06 03:51:00,
2013-02-05 22:52:00,23.9,-99.9,-100.00,SW,221,0.0,0.0,-999,0.00,,---,0.12,VWS V14.01,2013-02-06 03:52:00,
2013-02-05 22:53:00,23.9,-99.9,-100.00,SW,221,0.0,0.0,-999,0.00,,---,0.12,VWS V14.01,2013-02-06 03:53:00,
2013-02-05 22:56:00,23.4,-99.9,-100.00,SW,221,0.0,0.0,-999,0.00,,---,0.12,VWS V14.01,2013-02-06 03:56:00,
2013-02-05 22:57:00,23.9,-99.9,-100.00,SW,221,0.0,0.0,-999,0.00,,---,0.12,VWS V14.01,2013-02-06 03:57:00,